| time (UTC) | temp C | wind direction | speed KPH | gust KPH | rain 1hr cm | rain 24hr cm | rain mn cm | humidity % | barometer mb |
| 20260507160835 | 13 | 48 | 0.0 | 6.4 | 0.00 | 0.38 | 0.23 | 61 | 1011.3 |
| 20260507160729 | 13 | 20 | 0.0 | 6.4 | 0.00 | 0.38 | 0.23 | 60 | 1011.2 |
| 20260507160623 | 13 | 5 | 0.0 | 6.4 | 0.00 | 0.38 | 0.23 | 62 | 1011.2 |
| 20260507160255 | 13 | 294 | 0.0 | 6.4 | 0.00 | 0.38 | 0.23 | 67 | 1011.2 |
| 20260507160150 | 13 | 331 | 0.0 | 6.4 | 0.00 | 0.38 | 0.23 | 64 | 1011.2 |
| 20260507160042 | 13 | 283 | 0.0 | 6.4 | 0.00 | 0.38 | 0.23 | 64 | 1011.2 |
| 20260507155936 | 13 | 306 | 0.0 | 6.4 | 0.00 | 0.38 | 0.23 | 65 | 1011.2 |
| 20260507155831 | 13 | 306 | 0.0 | 6.4 | 0.00 | 0.38 | 0.23 | 69 | 1011.3 |
| 20260507155727 | 13 | 323 | 0.0 | 6.4 | 0.00 | 0.38 | 0.23 | 69 | 1011.3 |
| 20260507155625 | 13 | 44 | 0.0 | 6.4 | 0.00 | 0.38 | 0.23 | 67 | 1011.3 |
| 20260507155519 | 12 | 14 | 0.0 | 6.4 | 0.00 | 0.38 | 0.23 | 67 | 1011.3 |
| 20260507155412 | 12 | 107 | 1.6 | 6.4 | 0.00 | 0.38 | 0.23 | 70 | 1011.3 |
| 20260507155307 | 12 | 308 | 1.6 | 6.4 | 0.00 | 0.38 | 0.23 | 66 | 1011.3 |
| 20260507155200 | 12 | 255 | 0.0 | 6.4 | 0.00 | 0.36 | 0.23 | 67 | 1011.3 |
| 20260507154836 | 12 | 31 | 0.0 | 6.4 | 0.00 | 0.36 | 0.20 | 65 | 1011.4 |
| 20260507154728 | 12 | 70 | 0.0 | 6.4 | 0.00 | 0.36 | 0.20 | 69 | 1011.3 |
| 20260507154626 | 12 | 282 | 0.0 | 6.4 | 0.00 | 0.36 | 0.20 | 67 | 1011.4 |
| 20260507154522 | 12 | 28 | 0.0 | 6.4 | 0.00 | 0.36 | 0.20 | 65 | 1011.3 |
| 20260507154418 | 12 | 67 | 0.0 | 6.4 | 0.00 | 0.36 | 0.20 | 68 | 1011.3 |
| 20260507154312 | 12 | 27 | 0.0 | 3.2 | 0.00 | 0.36 | 0.20 | 68 | 1011.3 |
| 20260507154208 | 12 | 296 | 0.0 | 1.6 | 0.00 | 0.36 | 0.20 | 68 | 1011.2 |
| 20260507154100 | 12 | 67 | 0.0 | 1.6 | 0.00 | 0.36 | 0.20 | 67 | 1011.2 |
| 20260507153953 | 12 | 67 | 0.0 | 3.2 | 0.00 | 0.36 | 0.20 | 67 | 1011.2 |
| 20260507153629 | 12 | 65 | 0.0 | 3.2 | 0.00 | 0.36 | 0.20 | 71 | 1011.3 |
| 20260507153309 | 12 | 355 | 0.0 | 3.2 | 0.00 | 0.36 | 0.20 | 72 | 1011.3 |
| 20260507153203 | 12 | 274 | 0.0 | 3.2 | 0.00 | 0.36 | 0.20 | 73 | 1011.3 |
| 20260507153101 | 12 | 264 | 0.0 | 3.2 | 0.00 | 0.36 | 0.20 | 75 | 1011.3 |
| 20260507152955 | 12 | 187 | 0.0 | 1.6 | 0.00 | 0.36 | 0.20 | 78 | 1011.3 |
| 20260507152850 | 12 | 296 | 0.0 | 1.6 | 0.00 | 0.36 | 0.20 | 77 | 1011.3 |
| 20260507152746 | 12 | 88 | 0.0 | 1.6 | 0.00 | 0.36 | 0.20 | 77 | 1011.2 |
| 20260507152641 | 12 | 325 | 0.0 | 1.6 | 0.00 | 0.36 | 0.20 | 74 | 1011.2 |
| 20260507152536 | 12 | 5 | 0.0 | 1.6 | 0.00 | 0.36 | 0.20 | 74 | 1011.3 |
| 20260507152431 | 12 | 5 | 0.0 | 1.6 | 0.00 | 0.36 | 0.20 | 73 | 1011.3 |
| 20260507152105 | 11 | 97 | 0.0 | 1.6 | 0.00 | 0.36 | 0.20 | 72 | 1011.4 |
| 20260507152003 | 11 | 97 | 0.0 | 1.6 | 0.00 | 0.36 | 0.20 | 76 | 1011.5 |
| 20260507151857 | 11 | 49 | 0.0 | 0.0 | 0.00 | 0.36 | 0.20 | 76 | 1011.4 |
| 20260507151532 | 11 | 49 | 0.0 | 0.0 | 0.00 | 0.36 | 0.20 | 74 | 1011.4 |
| 20260507151425 | 11 | 49 | 0.0 | 0.0 | 0.00 | 0.36 | 0.20 | 74 | 1011.4 |
| 20260507151319 | 11 | 49 | 0.0 | 0.0 | 0.00 | 0.36 | 0.20 | 75 | 1011.5 |
| 20260507151211 | 11 | 49 | 0.0 | 0.0 | 0.00 | 0.36 | 0.20 | 74 | 1011.5 |
| 20260507151109 | 11 | 49 | 0.0 | 0.0 | 0.00 | 0.36 | 0.20 | 74 | 1011.5 |
| 20260507150522 | 11 | 13 | 0.0 | 3.2 | 0.00 | 0.36 | 0.20 | 75 | 1011.6 |
| 20260507150419 | 11 | 13 | 0.0 | 3.2 | 0.00 | 0.36 | 0.20 | 75 | 1011.6 |
| 20260507150054 | 11 | 321 | 0.0 | 3.2 | 0.00 | 0.36 | 0.20 | 71 | 1011.7 |
| 20260507145949 | 11 | 337 | 0.0 | 3.2 | 0.00 | 0.36 | 0.20 | 72 | 1011.7 |
| 20260507145844 | 11 | 337 | 0.0 | 3.2 | 0.00 | 0.38 | 0.20 | 72 | 1011.8 |
| 20260507145739 | 11 | 84 | 0.0 | 0.0 | 0.00 | 0.38 | 0.20 | 72 | 1011.7 |
| 20260507145631 | 11 | 84 | 0.0 | 1.6 | 0.00 | 0.38 | 0.20 | 72 | 1011.7 |
| 20260507145524 | 11 | 84 | 0.0 | 1.6 | 0.00 | 0.38 | 0.20 | 76 | 1011.7 |
| 20260507145416 | 11 | 30 | 0.0 | 1.6 | 0.00 | 0.38 | 0.20 | 77 | 1011.7 |
| 20260507145312 | 11 | 347 | 0.0 | 0.0 | 0.00 | 0.38 | 0.20 | 77 | 1011.7 |
| 20260507145208 | 11 | 277 | 0.0 | 0.0 | 0.00 | 0.38 | 0.20 | 77 | 1011.8 |
| 20260507145102 | 11 | 277 | 0.0 | 3.2 | 0.00 | 0.38 | 0.20 | 77 | 1011.8 |
| 20260507145000 | 11 | 277 | 0.0 | 3.2 | 0.00 | 0.38 | 0.20 | 78 | 1011.8 |
| 20260507144857 | 11 | 355 | 0.0 | 3.2 | 0.00 | 0.38 | 0.20 | 78 | 1011.8 |
| 20260507144756 | 11 | 355 | 0.0 | 3.2 | 0.00 | 0.38 | 0.20 | 77 | 1011.8 |
| 20260507144651 | 11 | 355 | 0.0 | 3.2 | 0.00 | 0.38 | 0.20 | 77 | 1011.8 |
| 20260507144547 | 11 | 13 | 0.0 | 3.2 | 0.00 | 0.38 | 0.20 | 78 | 1011.8 |
| 20260507144443 | 11 | 355 | 0.0 | 0.0 | 0.00 | 0.38 | 0.20 | 78 | 1011.8 |
| 20260507143859 | 11 | 355 | 0.0 | 0.0 | 0.00 | 0.38 | 0.20 | 81 | 1012.0 |
| 20260507143755 | 11 | 355 | 0.0 | 0.0 | 0.00 | 0.38 | 0.20 | 82 | 1011.9 |
| 20260507143651 | 11 | 355 | 0.0 | 0.0 | 0.00 | 0.38 | 0.20 | 83 | 1012.0 |
| 20260507143544 | 11 | 355 | 0.0 | 0.0 | 0.00 | 0.38 | 0.20 | 83 | 1012.0 |
| 20260507143441 | 11 | 355 | 0.0 | 0.0 | 0.00 | 0.38 | 0.20 | 84 | 1012.0 |
| 20260507143117 | 11 | 355 | 0.0 | 0.0 | 0.00 | 0.41 | 0.20 | 83 | 1012.0 |
| 20260507143010 | 11 | 355 | 0.0 | 0.0 | 0.00 | 0.41 | 0.20 | 83 | 1012.1 |
| 20260507142903 | 11 | 355 | 0.0 | 0.0 | 0.00 | 0.43 | 0.20 | 83 | 1012.0 |
| 20260507142755 | 11 | 355 | 0.0 | 0.0 | 0.00 | 0.43 | 0.20 | 82 | 1012.0 |
| 20260507142431 | 11 | 355 | 0.0 | 0.0 | 0.00 | 0.43 | 0.20 | 82 | 1012.1 |
| 20260507142325 | 11 | 355 | 0.0 | 0.0 | 0.00 | 0.43 | 0.20 | 81 | 1012.1 |
| 20260507142223 | 11 | 355 | 0.0 | 0.0 | 0.00 | 0.43 | 0.20 | 81 | 1012.2 |
| 20260507142120 | 11 | 259 | 0.0 | 0.0 | 0.00 | 0.46 | 0.20 | 81 | 1012.1 |
| 20260507142018 | 11 | 259 | 0.0 | 0.0 | 0.00 | 0.46 | 0.20 | 81 | 1012.1 |
| 20260507141913 | 11 | 133 | 0.0 | 0.0 | 0.00 | 0.46 | 0.20 | 82 | 1012.1 |
| 20260507141806 | 11 | 185 | 0.0 | 0.0 | 0.00 | 0.46 | 0.20 | 82 | 1012.1 |
| 20260507141223 | 11 | 46 | 0.0 | 0.0 | 0.00 | 0.48 | 0.20 | 80 | 1012.2 |
| 20260507141120 | 11 | 46 | 0.0 | 0.0 | 0.00 | 0.48 | 0.20 | 79 | 1012.2 |
| 20260507141018 | 11 | 46 | 0.0 | 0.0 | 0.00 | 0.48 | 0.20 | 78 | 1012.1 |
| 20260507140653 | 11 | 46 | 0.0 | 0.0 | 0.00 | 0.48 | 0.20 | 78 | 1012.0 |
| 20260507140545 | 11 | 46 | 0.0 | 0.0 | 0.00 | 0.48 | 0.20 | 78 | 1012.1 |
| 20260507140441 | 11 | 46 | 0.0 | 0.0 | 0.00 | 0.48 | 0.20 | 76 | 1012.0 |
| 20260507140114 | 11 | 18 | 0.0 | 0.0 | 0.00 | 0.48 | 0.20 | 75 | 1012.0 |
| 20260507140009 | 11 | 18 | 0.0 | 0.0 | 0.00 | 0.48 | 0.20 | 77 | 1012.1 |
| 20260507135905 | 11 | 18 | 0.0 | 0.0 | 0.00 | 0.48 | 0.20 | 77 | 1012.1 |
| 20260507135758 | 11 | 18 | 0.0 | 0.0 | 0.00 | 0.48 | 0.20 | 76 | 1012.2 |
| 20260507135654 | 11 | 18 | 0.0 | 0.0 | 0.00 | 0.48 | 0.20 | 76 | 1012.2 |
| 20260507135109 | 11 | 63 | 0.0 | 0.0 | 0.00 | 0.51 | 0.20 | 77 | 1012.3 |
| 20260507135005 | 11 | 63 | 0.0 | 0.0 | 0.00 | 0.51 | 0.20 | 78 | 1012.3 |
| 20260507134859 | 11 | 54 | 0.0 | 3.2 | 0.00 | 0.51 | 0.20 | 78 | 1012.2 |
| 20260507134534 | 11 | 100 | 0.0 | 0.0 | 0.00 | 0.51 | 0.20 | 82 | 1012.3 |
| 20260507133948 | 11 | 33 | 0.0 | 0.0 | 0.00 | 0.56 | 0.20 | 83 | 1012.3 |
| 20260507133842 | 11 | 33 | 0.0 | 0.0 | 0.00 | 0.56 | 0.20 | 83 | 1012.3 |
| 20260507133735 | 11 | 33 | 0.0 | 0.0 | 0.00 | 0.58 | 0.20 | 83 | 1012.3 |
| 20260507133631 | 11 | 33 | 0.0 | 0.0 | 0.00 | 0.58 | 0.20 | 83 | 1012.3 |
| 20260507133528 | 11 | 33 | 0.0 | 0.0 | 0.00 | 0.58 | 0.20 | 82 | 1012.3 |
| 20260507133422 | 11 | 33 | 0.0 | 0.0 | 0.00 | 0.58 | 0.20 | 82 | 1012.3 |
| 20260507133319 | 11 | 33 | 0.0 | 0.0 | 0.00 | 0.58 | 0.20 | 80 | 1012.4 |
| 20260507133214 | 11 | 33 | 0.0 | 0.0 | 0.00 | 0.58 | 0.20 | 79 | 1012.4 |
| 20260507133109 | 11 | 33 | 0.0 | 0.0 | 0.00 | 0.58 | 0.20 | 79 | 1012.4 |
| 20260507133001 | 11 | 33 | 0.0 | 0.0 | 0.00 | 0.58 | 0.20 | 79 | 1012.4 |
| 20260507132640 | 11 | 33 | 0.0 | 0.0 | 0.00 | 0.61 | 0.20 | 79 | 1012.5 |
| 20260507132312 | 11 | 39 | 0.0 | 0.0 | 0.00 | 0.61 | 0.20 | 77 | 1012.5 |
| 20260507132205 | 11 | 39 | 0.0 | 0.0 | 0.00 | 0.61 | 0.20 | 77 | 1012.4 |
| 20260507132059 | 11 | 39 | 0.0 | 0.0 | 0.00 | 0.61 | 0.20 | 77 | 1012.4 |
| 20260507131957 | 11 | 39 | 0.0 | 0.0 | 0.00 | 0.64 | 0.20 | 77 | 1012.4 |
| 20260507131855 | 11 | 39 | 0.0 | 0.0 | 0.00 | 0.64 | 0.20 | 77 | 1012.4 |
| 20260507131750 | 11 | 39 | 0.0 | 0.0 | 0.00 | 0.66 | 0.20 | 76 | 1012.4 |
| 20260507131647 | 11 | 39 | 0.0 | 0.0 | 0.00 | 0.66 | 0.20 | 76 | 1012.4 |
| 20260507131544 | 11 | 39 | 0.0 | 1.6 | 0.00 | 0.66 | 0.20 | 76 | 1012.4 |
| 20260507131440 | 11 | 39 | 0.0 | 1.6 | 0.00 | 0.66 | 0.20 | 76 | 1012.5 |
| 20260507131117 | 11 | 331 | 0.0 | 3.2 | 0.00 | 0.74 | 0.20 | 78 | 1012.4 |
| 20260507131011 | 11 | 331 | 0.0 | 3.2 | 0.00 | 0.76 | 0.20 | 76 | 1012.4 |
| 20260507130907 | 11 | 331 | 0.0 | 3.2 | 0.00 | 0.76 | 0.20 | 75 | 1012.4 |
| 20260507130805 | 11 | 17 | 0.0 | 3.2 | 0.00 | 0.76 | 0.20 | 75 | 1012.3 |
| 20260507130701 | 11 | 42 | 0.0 | 3.2 | 0.00 | 0.76 | 0.20 | 76 | 1012.3 |
| 20260507130557 | 11 | 109 | 0.0 | 3.2 | 0.00 | 0.79 | 0.20 | 76 | 1012.3 |
| 20260507130455 | 11 | 109 | 0.0 | 3.2 | 0.00 | 0.79 | 0.20 | 75 | 1012.2 |
| 20260507130352 | 11 | 135 | 0.0 | 3.2 | 0.00 | 0.79 | 0.20 | 75 | 1012.2 |
| 20260507130248 | 11 | 158 | 0.0 | 3.2 | 0.00 | 0.79 | 0.20 | 75 | 1012.2 |
| 20260507130141 | 11 | 65 | 0.0 | 3.2 | 0.00 | 0.79 | 0.20 | 76 | 1012.2 |
| 20260507130038 | 11 | 0 | 0.0 | 1.6 | 0.00 | 0.81 | 0.20 | 77 | 1012.2 |
| 20260507125936 | 11 | 34 | 0.0 | 1.6 | 0.00 | 0.81 | 0.20 | 79 | 1012.2 |
| 20260507125611 | 11 | 351 | 0.0 | 0.0 | 0.00 | 0.89 | 0.20 | 80 | 1012.2 |
| 20260507125506 | 11 | 351 | 0.0 | 0.0 | 0.00 | 0.91 | 0.20 | 81 | 1012.1 |
| 20260507125403 | 11 | 351 | 0.0 | 1.6 | 0.00 | 0.91 | 0.20 | 81 | 1012.1 |
| 20260507125256 | 11 | 351 | 0.0 | 1.6 | 0.00 | 0.94 | 0.20 | 82 | 1012.1 |
| 20260507125152 | 11 | 320 | 0.0 | 1.6 | 0.00 | 0.94 | 0.20 | 81 | 1012.1 |
| 20260507124828 | 11 | 16 | 0.0 | 3.2 | 0.00 | 0.99 | 0.20 | 80 | 1012.2 |
| 20260507124722 | 11 | 16 | 0.0 | 3.2 | 0.00 | 0.99 | 0.20 | 80 | 1012.2 |
| 20260507124615 | 11 | 16 | 0.0 | 3.2 | 0.00 | 1.02 | 0.20 | 77 | 1012.2 |
| 20260507124252 | 11 | 62 | 0.0 | 3.2 | 0.00 | 1.02 | 0.20 | 76 | 1012.2 |
| 20260507124144 | 11 | 62 | 0.0 | 3.2 | 0.00 | 1.02 | 0.20 | 76 | 1012.3 |
| 20260507124038 | 11 | 62 | 0.0 | 4.8 | 0.00 | 1.02 | 0.20 | 77 | 1012.2 |
| 20260507123934 | 11 | 30 | 0.0 | 4.8 | 0.00 | 1.04 | 0.20 | 76 | 1012.2 |
| 20260507123828 | 11 | 301 | 0.0 | 4.8 | 0.00 | 1.04 | 0.20 | 76 | 1012.3 |
| 20260507123726 | 11 | 301 | 0.0 | 4.8 | 0.00 | 1.04 | 0.20 | 77 | 1012.3 |
| 20260507123623 | 11 | 22 | 0.0 | 4.8 | 0.00 | 1.04 | 0.20 | 77 | 1012.2 |
| 20260507123519 | 11 | 36 | 0.0 | 4.8 | 0.00 | 1.04 | 0.20 | 76 | 1012.1 |
| 20260507123418 | 11 | 36 | 0.0 | 4.8 | 0.00 | 1.04 | 0.20 | 77 | 1012.0 |
| 20260507123312 | 11 | 315 | 0.0 | 4.8 | 0.00 | 1.04 | 0.20 | 79 | 1012.0 |
| 20260507123208 | 11 | 24 | 0.0 | 4.8 | 0.00 | 1.04 | 0.20 | 79 | 1012.0 |
| 20260507123105 | 11 | 71 | 0.0 | 4.8 | 0.00 | 1.04 | 0.20 | 80 | 1012.0 |
| 20260507122958 | 11 | 36 | 0.0 | 4.8 | 0.00 | 1.04 | 0.20 | 81 | 1011.9 |
| 20260507122853 | 11 | 36 | 0.0 | 4.8 | 0.00 | 1.04 | 0.20 | 81 | 1011.9 |
| 20260507122747 | 11 | 101 | 0.0 | 4.8 | 0.00 | 1.04 | 0.20 | 81 | 1011.9 |
| 20260507122643 | 11 | 5 | 0.0 | 4.8 | 0.00 | 1.04 | 0.20 | 82 | 1012.0 |
| 20260507122539 | 11 | 10 | 0.0 | 4.8 | 0.00 | 1.04 | 0.20 | 83 | 1012.0 |
| 20260507122437 | 11 | 5 | 0.0 | 4.8 | 0.00 | 1.04 | 0.20 | 84 | 1012.0 |
| 20260507122332 | 11 | 33 | 0.0 | 4.8 | 0.00 | 1.04 | 0.20 | 84 | 1012.0 |
| 20260507122227 | 11 | 355 | 0.0 | 4.8 | 0.00 | 1.04 | 0.20 | 84 | 1012.0 |
| 20260507122120 | 11 | 355 | 0.0 | 4.8 | 0.00 | 1.04 | 0.20 | 82 | 1012.0 |
| 20260507122015 | 11 | 338 | 0.0 | 4.8 | 0.00 | 1.04 | 0.20 | 81 | 1012.0 |
| 20260507121909 | 11 | 339 | 0.0 | 4.8 | 0.00 | 1.04 | 0.20 | 82 | 1012.0 |
| 20260507121802 | 11 | 355 | 0.0 | 4.8 | 0.00 | 1.04 | 0.20 | 83 | 1011.9 |
| 20260507121659 | 11 | 0 | 0.0 | 4.8 | 0.00 | 1.04 | 0.20 | 82 | 1011.9 |
| 20260507121331 | 11 | 336 | 0.0 | 4.8 | 0.00 | 1.04 | 0.20 | 83 | 1012.0 |
| 20260507121229 | 11 | 64 | 0.0 | 4.8 | 0.00 | 1.04 | 0.20 | 83 | 1012.0 |
| 20260507121126 | 11 | 37 | 0.0 | 4.8 | 0.00 | 1.04 | 0.20 | 83 | 1012.0 |
| 20260507121023 | 11 | 17 | 0.0 | 3.2 | 0.00 | 1.04 | 0.20 | 84 | 1012.0 |
| 20260507120917 | 11 | 17 | 0.0 | 3.2 | 0.00 | 1.04 | 0.20 | 84 | 1012.0 |
| 20260507120552 | 11 | 49 | 0.0 | 3.2 | 0.00 | 1.04 | 0.20 | 86 | 1012.0 |
| 20260507120447 | 11 | 49 | 0.0 | 3.2 | 0.00 | 1.04 | 0.20 | 86 | 1012.0 |
| 20260507120340 | 11 | 0 | 0.0 | 3.2 | 0.00 | 1.07 | 0.20 | 87 | 1012.0 |
| 20260507120010 | 11 | 51 | 0.0 | 1.6 | 0.00 | 1.07 | 0.20 | 88 | 1011.9 |
| 20260507115909 | 11 | 29 | 0.0 | 1.6 | 0.00 | 1.07 | 0.20 | 88 | 1011.9 |
| 20260507115804 | 11 | 29 | 0.0 | 1.6 | 0.00 | 1.09 | 0.20 | 88 | 1011.9 |
| 20260507115701 | 11 | 29 | 0.0 | 1.6 | 0.00 | 1.09 | 0.20 | 88 | 1011.9 |
| 20260507115558 | 11 | 5 | 0.0 | 1.6 | 0.00 | 1.09 | 0.20 | 88 | 1011.9 |
| 20260507115455 | 11 | 0 | 0.0 | 1.6 | 0.00 | 1.09 | 0.20 | 88 | 1011.9 |
| 20260507115349 | 11 | 0 | 0.0 | 1.6 | 0.00 | 1.09 | 0.20 | 87 | 1011.8 |
| 20260507115247 | 11 | 32 | 0.0 | 0.0 | 0.00 | 1.09 | 0.20 | 87 | 1011.9 |
| 20260507115144 | 11 | 32 | 0.0 | 0.0 | 0.00 | 1.09 | 0.20 | 87 | 1012.0 |
| 20260507114820 | 11 | 32 | 0.0 | 0.0 | 0.00 | 1.12 | 0.20 | 87 | 1012.1 |
| 20260507114228 | 11 | 32 | 0.0 | 0.0 | 0.00 | 1.12 | 0.20 | 88 | 1012.0 |
| 20260507114125 | 11 | 32 | 0.0 | 1.6 | 0.00 | 1.14 | 0.20 | 88 | 1011.9 |
| 20260507114020 | 11 | 32 | 0.0 | 1.6 | 0.00 | 1.14 | 0.20 | 89 | 1011.9 |
| 20260507113701 | 11 | 11 | 0.0 | 1.6 | 0.00 | 1.14 | 0.20 | 89 | 1011.7 |
| 20260507113554 | 11 | 30 | 0.0 | 1.6 | 0.00 | 1.14 | 0.20 | 89 | 1011.7 |
| 20260507112750 | 11 | 197 | 0.0 | 1.6 | 0.00 | 1.17 | 0.20 | 91 | 1011.5 |
| 20260507112645 | 11 | 333 | 0.0 | 0.0 | 0.00 | 1.17 | 0.20 | 91 | 1011.5 |
| 20260507112322 | 11 | 36 | 0.0 | 0.0 | 0.00 | 1.17 | 0.20 | 91 | 1011.5 |
| 20260507112215 | 11 | 36 | 0.0 | 3.2 | 0.00 | 1.17 | 0.20 | 91 | 1011.5 |
| 20260507112108 | 11 | 65 | 0.0 | 1.6 | 0.00 | 1.17 | 0.20 | 91 | 1011.4 |
| 20260507112005 | 11 | 20 | 0.0 | 0.0 | 0.00 | 1.17 | 0.20 | 91 | 1011.3 |
| 20260507111857 | 11 | 20 | 0.0 | 0.0 | 0.00 | 1.17 | 0.20 | 91 | 1011.3 |
| 20260507111755 | 11 | 20 | 0.0 | 0.0 | 0.00 | 1.17 | 0.20 | 91 | 1011.2 |
| 20260507111650 | 11 | 20 | 0.0 | 0.0 | 0.00 | 1.17 | 0.20 | 91 | 1011.3 |
| 20260507111328 | 11 | 20 | 0.0 | 0.0 | 0.00 | 1.17 | 0.20 | 91 | 1011.4 |
| 20260507111221 | 11 | 20 | 0.0 | 0.0 | 0.00 | 1.17 | 0.20 | 91 | 1011.3 |
| 20260507111119 | 11 | 20 | 0.0 | 0.0 | 0.00 | 1.17 | 0.20 | 91 | 1011.3 |
| 20260507111015 | 11 | 20 | 0.0 | 0.0 | 0.00 | 1.17 | 0.20 | 91 | 1011.3 |
| 20260507110908 | 11 | 20 | 0.0 | 0.0 | 0.00 | 1.17 | 0.20 | 91 | 1011.3 |
| 20260507110543 | 11 | 20 | 0.0 | 0.0 | 0.00 | 1.17 | 0.20 | 91 | 1011.4 |
| 20260507110437 | 11 | 20 | 0.0 | 0.0 | 0.00 | 1.17 | 0.20 | 91 | 1011.4 |
| 20260507110333 | 11 | 20 | 0.0 | 0.0 | 0.00 | 1.17 | 0.20 | 91 | 1011.4 |
| 20260507110010 | 11 | 20 | 0.0 | 0.0 | 0.00 | 1.17 | 0.20 | 91 | 1011.4 |
| 20260507105904 | 11 | 20 | 0.0 | 0.0 | 0.00 | 1.17 | 0.20 | 91 | 1011.2 |
| 20260507105801 | 11 | 20 | 0.0 | 0.0 | 0.00 | 1.17 | 0.20 | 91 | 1011.3 |
| 20260507105658 | 11 | 20 | 0.0 | 0.0 | 0.00 | 1.17 | 0.20 | 91 | 1011.2 |
| 20260507105552 | 11 | 20 | 0.0 | 0.0 | 0.00 | 1.17 | 0.20 | 91 | 1011.3 |
| 20260507105450 | 11 | 20 | 0.0 | 0.0 | 0.00 | 1.17 | 0.20 | 91 | 1011.3 |
| 20260507105346 | 11 | 20 | 0.0 | 0.0 | 0.00 | 1.17 | 0.20 | 91 | 1011.3 |
| 20260507105024 | 11 | 9 | 0.0 | 0.0 | 0.00 | 1.17 | 0.20 | 91 | 1011.2 |
| 20260507104654 | 11 | 9 | 0.0 | 0.0 | 0.00 | 1.17 | 0.20 | 91 | 1011.4 |
| 20260507104547 | 11 | 9 | 0.0 | 0.0 | 0.00 | 1.17 | 0.20 | 91 | 1011.4 |
| 20260507104444 | 11 | 9 | 0.0 | 0.0 | 0.00 | 1.17 | 0.20 | 91 | 1011.4 |
| 20260507104341 | 11 | 9 | 0.0 | 0.0 | 0.00 | 1.17 | 0.20 | 91 | 1011.4 |
| 20260507104237 | 11 | 9 | 0.0 | 0.0 | 0.00 | 1.17 | 0.20 | 91 | 1011.3 |
| 20260507103915 | 11 | 9 | 0.0 | 0.0 | 0.00 | 1.17 | 0.20 | 91 | 1011.3 |
| 20260507103551 | 11 | 9 | 0.0 | 0.0 | 0.00 | 1.17 | 0.20 | 91 | 1011.2 |
| 20260507103449 | 11 | 9 | 0.0 | 0.0 | 0.00 | 1.17 | 0.20 | 91 | 1011.2 |
| 20260507103344 | 11 | 9 | 0.0 | 0.0 | 0.00 | 1.17 | 0.20 | 91 | 1011.2 |
| 20260507103240 | 11 | 9 | 0.0 | 0.0 | 0.00 | 1.17 | 0.20 | 91 | 1011.2 |
| 20260507103137 | 11 | 9 | 0.0 | 0.0 | 0.00 | 1.17 | 0.20 | 91 | 1011.1 |
| 20260507103034 | 11 | 9 | 0.0 | 0.0 | 0.00 | 1.17 | 0.20 | 91 | 1011.1 |
| 20260507102931 | 11 | 9 | 0.0 | 0.0 | 0.00 | 1.17 | 0.20 | 91 | 1011.0 |
| 20260507102825 | 11 | 9 | 0.0 | 0.0 | 0.00 | 1.17 | 0.20 | 91 | 1011.0 |
| 20260507102501 | 11 | 9 | 0.0 | 0.0 | 0.00 | 1.17 | 0.20 | 91 | 1011.2 |
| 20260507102139 | 11 | 9 | 0.0 | 0.0 | 0.00 | 1.17 | 0.20 | 91 | 1011.1 |
| 20260507102033 | 11 | 9 | 0.0 | 0.0 | 0.00 | 1.17 | 0.20 | 91 | 1011.1 |
| 20260507101931 | 11 | 9 | 0.0 | 0.0 | 0.00 | 1.17 | 0.20 | 91 | 1011.1 |
| 20260507101829 | 11 | 9 | 0.0 | 0.0 | 0.00 | 1.17 | 0.20 | 91 | 1011.1 |
| 20260507101726 | 11 | 9 | 0.0 | 0.0 | 0.00 | 1.17 | 0.20 | 91 | 1011.1 |
| 20260507101401 | 11 | 9 | 0.0 | 0.0 | 0.00 | 1.17 | 0.20 | 91 | 1011.0 |
| 20260507101255 | 11 | 9 | 0.0 | 0.0 | 0.00 | 1.17 | 0.20 | 91 | 1011.0 |
| 20260507101149 | 11 | 9 | 0.0 | 0.0 | 0.00 | 1.17 | 0.20 | 91 | 1011.0 |
| 20260507100824 | 11 | 9 | 0.0 | 0.0 | 0.00 | 1.17 | 0.20 | 91 | 1011.0 |
| 20260507100719 | 11 | 9 | 0.0 | 0.0 | 0.00 | 1.17 | 0.20 | 91 | 1011.0 |
| 20260507100617 | 11 | 9 | 0.0 | 0.0 | 0.00 | 1.17 | 0.20 | 91 | 1011.0 |
| 20260507100515 | 11 | 9 | 0.0 | 0.0 | 0.00 | 1.17 | 0.20 | 91 | 1011.0 |
| 20260507100408 | 11 | 9 | 0.0 | 0.0 | 0.00 | 1.17 | 0.20 | 91 | 1011.0 |
| 20260507100303 | 11 | 9 | 0.0 | 0.0 | 0.00 | 1.17 | 0.20 | 91 | 1011.0 |
| 20260507100200 | 11 | 9 | 0.0 | 0.0 | 0.00 | 1.17 | 0.20 | 92 | 1010.9 |
| 20260507100053 | 11 | 9 | 0.0 | 0.0 | 0.00 | 1.17 | 0.20 | 92 | 1010.9 |
| 20260507095948 | 11 | 9 | 0.0 | 0.0 | 0.00 | 1.17 | 0.20 | 92 | 1010.9 |
| 20260507095845 | 11 | 9 | 0.0 | 0.0 | 0.00 | 1.17 | 0.20 | 92 | 1010.9 |
| 20260507095739 | 11 | 9 | 0.0 | 0.0 | 0.00 | 1.17 | 0.20 | 92 | 1010.9 |
| 20260507095634 | 11 | 9 | 0.0 | 0.0 | 0.00 | 1.17 | 0.20 | 92 | 1010.8 |
| 20260507095529 | 11 | 9 | 0.0 | 0.0 | 0.00 | 1.17 | 0.20 | 92 | 1010.9 |
| 20260507095426 | 11 | 9 | 0.0 | 0.0 | 0.00 | 1.17 | 0.20 | 92 | 1010.9 |
| 20260507095322 | 11 | 9 | 0.0 | 0.0 | 0.00 | 1.17 | 0.20 | 92 | 1010.9 |
| 20260507095220 | 11 | 9 | 0.0 | 0.0 | 0.00 | 1.17 | 0.20 | 92 | 1011.0 |
| 20260507095118 | 11 | 9 | 0.0 | 0.0 | 0.00 | 1.17 | 0.20 | 92 | 1010.9 |
| 20260507095014 | 11 | 9 | 0.0 | 0.0 | 0.00 | 1.17 | 0.20 | 92 | 1010.9 |
| 20260507094912 | 11 | 9 | 0.0 | 0.0 | 0.00 | 1.17 | 0.20 | 92 | 1010.8 |
| 20260507094806 | 11 | 9 | 0.0 | 0.0 | 0.00 | 1.17 | 0.20 | 92 | 1010.7 |
| 20260507094219 | 11 | 9 | 0.0 | 0.0 | 0.00 | 1.17 | 0.20 | 92 | 1010.7 |
| 20260507094113 | 11 | 45 | 0.0 | 0.0 | 0.00 | 1.17 | 0.20 | 92 | 1010.7 |
| 20260507094005 | 11 | 45 | 0.0 | 0.0 | 0.00 | 1.17 | 0.20 | 92 | 1010.7 |
| 20260507093205 | 11 | 45 | 0.0 | 0.0 | 0.00 | 1.17 | 0.20 | 92 | 1010.9 |
| 20260507093101 | 11 | 45 | 0.0 | 0.0 | 0.00 | 1.17 | 0.20 | 92 | 1010.8 |
| 20260507092959 | 11 | 45 | 0.0 | 0.0 | 0.00 | 1.17 | 0.20 | 92 | 1010.7 |
| 20260507092852 | 11 | 45 | 0.0 | 0.0 | 0.00 | 1.17 | 0.20 | 92 | 1010.7 |
| 20260507092745 | 11 | 45 | 0.0 | 0.0 | 0.00 | 1.17 | 0.20 | 92 | 1010.8 |
| 20260507092639 | 11 | 45 | 0.0 | 0.0 | 0.00 | 1.17 | 0.20 | 92 | 1010.8 |
| 20260507092532 | 11 | 45 | 0.0 | 0.0 | 0.00 | 1.17 | 0.20 | 92 | 1010.8 |
| 20260507092207 | 11 | 45 | 0.0 | 0.0 | 0.00 | 1.17 | 0.20 | 92 | 1010.9 |
| 20260507092102 | 11 | 45 | 0.0 | 0.0 | 0.00 | 1.17 | 0.20 | 92 | 1010.8 |
| 20260507091958 | 11 | 45 | 0.0 | 0.0 | 0.00 | 1.17 | 0.20 | 92 | 1010.7 |
| 20260507091854 | 11 | 45 | 0.0 | 0.0 | 0.00 | 1.17 | 0.20 | 92 | 1010.7 |
| 20260507091749 | 11 | 53 | 0.0 | 0.0 | 0.00 | 1.17 | 0.20 | 92 | 1010.7 |
| 20260507091646 | 11 | 17 | 0.0 | 0.0 | 0.00 | 1.17 | 0.20 | 92 | 1010.7 |
| 20260507091539 | 11 | 17 | 0.0 | 0.0 | 0.00 | 1.17 | 0.20 | 92 | 1010.7 |
| 20260507091432 | 11 | 17 | 0.0 | 1.6 | 0.00 | 1.17 | 0.20 | 92 | 1010.7 |
| 20260507091328 | 11 | 17 | 0.0 | 1.6 | 0.00 | 1.17 | 0.20 | 92 | 1010.6 |
| 20260507091002 | 11 | 34 | 0.0 | 0.0 | 0.00 | 1.17 | 0.20 | 92 | 1010.4 |
| 20260507090857 | 11 | 34 | 0.0 | 0.0 | 0.00 | 1.17 | 0.20 | 92 | 1010.5 |
| 20260507090754 | 11 | 34 | 0.0 | 0.0 | 0.00 | 1.17 | 0.20 | 93 | 1010.5 |
| 20260507090433 | 11 | 34 | 0.0 | 0.0 | 0.00 | 1.17 | 0.20 | 92 | 1010.3 |
| 20260507090331 | 11 | 34 | 0.0 | 0.0 | 0.00 | 1.17 | 0.20 | 93 | 1010.4 |
| 20260507090226 | 11 | 34 | 0.0 | 0.0 | 0.00 | 1.17 | 0.20 | 93 | 1010.4 |
| 20260507090121 | 11 | 34 | 0.0 | 0.0 | 0.00 | 1.17 | 0.20 | 93 | 1010.4 |
| 20260507090016 | 11 | 34 | 0.0 | 0.0 | 0.00 | 1.17 | 0.20 | 93 | 1010.4 |
| 20260507085912 | 11 | 34 | 0.0 | 0.0 | 0.00 | 1.17 | 0.20 | 93 | 1010.3 |
| 20260507085810 | 11 | 39 | 0.0 | 0.0 | 0.00 | 1.17 | 0.20 | 93 | 1010.3 |
| 20260507085707 | 11 | 39 | 0.0 | 0.0 | 0.00 | 1.17 | 0.20 | 93 | 1010.3 |
| 20260507085603 | 11 | 35 | 0.0 | 0.0 | 0.00 | 1.17 | 0.20 | 93 | 1010.3 |
| 20260507085501 | 11 | 35 | 0.0 | 0.0 | 0.00 | 1.17 | 0.20 | 93 | 1010.3 |
| 20260507084656 | 11 | 35 | 0.0 | 0.0 | 0.00 | 1.17 | 0.20 | 93 | 1010.6 |
| 20260507084553 | 11 | 35 | 0.0 | 0.0 | 0.00 | 1.17 | 0.20 | 93 | 1010.6 |
| 20260507084450 | 11 | 35 | 0.0 | 1.6 | 0.00 | 1.17 | 0.20 | 93 | 1010.6 |
| 20260507084122 | 11 | 36 | 0.0 | 0.0 | 0.00 | 1.17 | 0.20 | 93 | 1010.6 |
| 20260507084016 | 11 | 36 | 0.0 | 0.0 | 0.00 | 1.17 | 0.20 | 93 | 1010.6 |
| 20260507083912 | 11 | 36 | 0.0 | 0.0 | 0.00 | 1.17 | 0.20 | 93 | 1010.6 |
| 20260507083805 | 11 | 36 | 0.0 | 0.0 | 0.00 | 1.17 | 0.20 | 93 | 1010.7 |
| 20260507083703 | 11 | 36 | 0.0 | 0.0 | 0.00 | 1.17 | 0.20 | 93 | 1010.6 |
| 20260507083558 | 11 | 36 | 0.0 | 0.0 | 0.00 | 1.17 | 0.20 | 93 | 1010.6 |
| 20260507083453 | 11 | 36 | 0.0 | 0.0 | 0.00 | 1.17 | 0.20 | 93 | 1010.6 |
| 20260507083345 | 11 | 36 | 0.0 | 0.0 | 0.00 | 1.17 | 0.20 | 93 | 1010.5 |
| 20260507083242 | 11 | 36 | 0.0 | 0.0 | 0.00 | 1.17 | 0.20 | 93 | 1010.5 |
| 20260507083135 | 11 | 36 | 0.0 | 0.0 | 0.00 | 1.17 | 0.20 | 93 | 1010.4 |
| 20260507083031 | 11 | 36 | 0.0 | 0.0 | 0.00 | 1.17 | 0.20 | 93 | 1010.4 |
| 20260507082928 | 11 | 36 | 0.0 | 0.0 | 0.00 | 1.17 | 0.20 | 93 | 1010.3 |
| 20260507082820 | 11 | 36 | 0.0 | 0.0 | 0.00 | 1.17 | 0.20 | 93 | 1010.4 |
| 20260507082718 | 11 | 36 | 0.0 | 0.0 | 0.00 | 1.17 | 0.20 | 93 | 1010.5 |
| 20260507082355 | 11 | 36 | 0.0 | 0.0 | 0.00 | 1.17 | 0.20 | 93 | 1010.6 |
| 20260507082248 | 11 | 36 | 0.0 | 0.0 | 0.00 | 1.17 | 0.20 | 93 | 1010.6 |
| 20260507082145 | 11 | 27 | 0.0 | 0.0 | 0.00 | 1.17 | 0.20 | 93 | 1010.6 |
| 20260507081819 | 11 | 27 | 0.0 | 0.0 | 0.00 | 1.17 | 0.20 | 93 | 1010.5 |
| 20260507081713 | 11 | 27 | 0.0 | 0.0 | 0.00 | 1.17 | 0.20 | 93 | 1010.5 |
| 20260507081611 | 11 | 27 | 0.0 | 0.0 | 0.00 | 1.17 | 0.20 | 93 | 1010.5 |
| 20260507081502 | 11 | 27 | 0.0 | 0.0 | 0.00 | 1.17 | 0.20 | 93 | 1010.5 |
| 20260507081400 | 11 | 27 | 0.0 | 0.0 | 0.00 | 1.17 | 0.20 | 93 | 1010.5 |
| 20260507081252 | 11 | 27 | 0.0 | 0.0 | 0.00 | 1.17 | 0.20 | 93 | 1010.4 |
| 20260507080705 | 11 | 27 | 0.0 | 0.0 | 0.00 | 1.17 | 0.20 | 93 | 1010.4 |
| 20260507080600 | 11 | 54 | 0.0 | 0.0 | 0.00 | 1.17 | 0.20 | 93 | 1010.3 |
| 20260507080454 | 11 | 126 | 0.0 | 0.0 | 0.00 | 1.17 | 0.20 | 93 | 1010.3 |
| 20260507080127 | 11 | 28 | 0.0 | 0.0 | 0.00 | 1.17 | 0.20 | 93 | 1010.5 |
| 20260507080020 | 11 | 28 | 0.0 | 0.0 | 0.00 | 1.17 | 0.20 | 93 | 1010.5 |
| 20260507075435 | 11 | 28 | 0.0 | 0.0 | 0.00 | 1.17 | 0.20 | 92 | 1010.1 |
| 20260507075332 | 11 | 71 | 0.0 | 0.0 | 0.00 | 1.17 | 0.20 | 92 | 1010.0 |
| 20260507075225 | 11 | 71 | 0.0 | 0.0 | 0.00 | 1.17 | 0.20 | 92 | 1010.0 |
| 20260507075124 | 11 | 71 | 0.0 | 0.0 | 0.00 | 1.17 | 0.20 | 92 | 1010.0 |
| 20260507074751 | 11 | 71 | 0.0 | 0.0 | 0.00 | 1.17 | 0.20 | 92 | 1009.9 |
| 20260507074424 | 11 | 71 | 0.0 | 0.0 | 0.00 | 1.17 | 0.20 | 92 | 1009.9 |
| 20260507074322 | 11 | 103 | 0.0 | 0.0 | 0.00 | 1.17 | 0.20 | 92 | 1009.9 |
| 20260507074215 | 11 | 103 | 0.0 | 0.0 | 0.00 | 1.17 | 0.20 | 92 | 1009.9 |
| 20260507074108 | 11 | 103 | 0.0 | 0.0 | 0.00 | 1.17 | 0.20 | 92 | 1009.8 |
| 20260507074004 | 11 | 103 | 0.0 | 0.0 | 0.00 | 1.17 | 0.20 | 92 | 1009.8 |
| 20260507073859 | 11 | 103 | 0.0 | 0.0 | 0.00 | 1.17 | 0.20 | 92 | 1009.9 |
| 20260507073753 | 11 | 103 | 0.0 | 0.0 | 0.00 | 1.17 | 0.20 | 92 | 1009.9 |
| 20260507073650 | 11 | 103 | 0.0 | 0.0 | 0.00 | 1.17 | 0.20 | 93 | 1010.0 |
| 20260507073545 | 11 | 103 | 0.0 | 0.0 | 0.00 | 1.17 | 0.20 | 93 | 1010.0 |
| 20260507073215 | 11 | 319 | 0.0 | 0.0 | 0.00 | 1.17 | 0.20 | 93 | 1010.0 |
| 20260507073110 | 11 | 319 | 0.0 | 0.0 | 0.00 | 1.17 | 0.20 | 93 | 1010.0 |
| 20260507073004 | 11 | 319 | 0.0 | 0.0 | 0.00 | 1.17 | 0.20 | 93 | 1010.0 |
| 20260507072640 | 11 | 319 | 0.0 | 8.0 | 0.00 | 1.17 | 0.20 | 93 | 1010.0 |
| 20260507072536 | 11 | 0 | 0.0 | 8.0 | 0.00 | 1.17 | 0.20 | 93 | 1010.0 |
| 20260507071955 | 11 | 51 | 0.0 | 9.7 | 0.00 | 1.17 | 0.20 | 93 | 1009.9 |
| 20260507071852 | 12 | 51 | 0.0 | 9.7 | 0.00 | 1.17 | 0.20 | 93 | 1009.9 |
| 20260507071744 | 12 | 51 | 0.0 | 9.7 | 0.00 | 1.17 | 0.20 | 93 | 1009.8 |
| 20260507071420 | 12 | 290 | 0.0 | 9.7 | 0.00 | 1.17 | 0.20 | 93 | 1009.7 |
| 20260507071316 | 12 | 290 | 0.0 | 9.7 | 0.00 | 1.17 | 0.20 | 93 | 1009.8 |
| 20260507071208 | 12 | 290 | 0.0 | 9.7 | 0.00 | 1.17 | 0.20 | 93 | 1009.8 |
| 20260507071101 | 12 | 330 | 0.0 | 9.7 | 0.00 | 1.17 | 0.20 | 93 | 1009.8 |
| 20260507070958 | 12 | 56 | 0.0 | 9.7 | 0.00 | 1.17 | 0.20 | 93 | 1009.8 |
| 20260507070851 | 12 | 61 | 0.0 | 9.7 | 0.00 | 1.17 | 0.20 | 93 | 1009.8 |
| 20260507070745 | 12 | 63 | 0.0 | 9.7 | 0.00 | 1.17 | 0.20 | 93 | 1009.9 |
| 20260507070643 | 12 | 228 | 0.0 | 9.7 | 0.00 | 1.17 | 0.20 | 93 | 1009.9 |
| 20260507070055 | 12 | 34 | 0.0 | 4.8 | 0.00 | 1.17 | 0.20 | 93 | 1009.7 |
| 20260507065952 | 12 | 34 | 0.0 | 4.8 | 0.00 | 1.17 | 0.20 | 93 | 1009.8 |
| 20260507065848 | 12 | 17 | 0.0 | 4.8 | 0.00 | 1.17 | 0.20 | 93 | 1009.8 |
| 20260507065745 | 12 | 17 | 0.0 | 4.8 | 0.00 | 1.17 | 0.20 | 93 | 1009.8 |
| 20260507065639 | 12 | 17 | 0.0 | 4.8 | 0.00 | 1.17 | 0.20 | 93 | 1009.8 |
| 20260507065535 | 12 | 316 | 0.0 | 4.8 | 0.00 | 1.17 | 0.20 | 93 | 1009.8 |
| 20260507065432 | 12 | 316 | 0.0 | 4.8 | 0.00 | 1.17 | 0.20 | 93 | 1009.8 |
| 20260507065105 | 12 | 316 | 0.0 | 4.8 | 0.00 | 1.17 | 0.20 | 93 | 1009.9 |
| 20260507064959 | 12 | 316 | 0.0 | 4.8 | 0.00 | 1.17 | 0.20 | 93 | 1009.9 |
| 20260507064852 | 12 | 316 | 0.0 | 4.8 | 0.00 | 1.17 | 0.20 | 93 | 1009.9 |
| 20260507064747 | 12 | 315 | 0.0 | 1.6 | 0.00 | 1.17 | 0.20 | 93 | 1009.9 |
| 20260507064640 | 12 | 5 | 0.0 | 0.0 | 0.00 | 1.17 | 0.20 | 93 | 1009.9 |
| 20260507064100 | 12 | 23 | 0.0 | 3.2 | 0.00 | 1.17 | 0.20 | 93 | 1009.8 |
| 20260507063954 | 12 | 23 | 0.0 | 3.2 | 0.00 | 1.17 | 0.20 | 93 | 1009.8 |
| 20260507063850 | 12 | 47 | 0.0 | 3.2 | 0.00 | 1.17 | 0.20 | 93 | 1009.8 |
| 20260507063529 | 12 | 338 | 0.0 | 3.2 | 0.00 | 1.17 | 0.20 | 93 | 1009.9 |
| 20260507063426 | 12 | 91 | 0.0 | 3.2 | 0.00 | 1.17 | 0.20 | 93 | 1009.9 |
| 20260507063322 | 12 | 313 | 0.0 | 0.0 | 0.00 | 1.17 | 0.20 | 93 | 1009.9 |
| 20260507063216 | 12 | 309 | 0.0 | 0.0 | 0.00 | 1.17 | 0.20 | 93 | 1010.0 |
| 20260507063113 | 12 | 296 | 0.0 | 0.0 | 0.00 | 1.17 | 0.20 | 93 | 1010.0 |
| 20260507063009 | 12 | 296 | 0.0 | 0.0 | 0.00 | 1.17 | 0.20 | 93 | 1010.0 |
| 20260507062902 | 12 | 296 | 0.0 | 1.6 | 0.00 | 1.17 | 0.20 | 93 | 1010.0 |
| 20260507062758 | 12 | 296 | 0.0 | 1.6 | 0.00 | 1.17 | 0.20 | 93 | 1010.0 |
| 20260507062652 | 12 | 275 | 0.0 | 0.0 | 0.00 | 1.17 | 0.20 | 93 | 1010.1 |
| 20260507062550 | 12 | 275 | 0.0 | 0.0 | 0.00 | 1.17 | 0.20 | 93 | 1010.0 |
| 20260507062446 | 12 | 275 | 0.0 | 3.2 | 0.00 | 1.17 | 0.20 | 93 | 1010.1 |
| 20260507062338 | 12 | 275 | 0.0 | 3.2 | 0.00 | 1.17 | 0.20 | 93 | 1010.1 |
| 20260507062012 | 12 | 355 | 0.0 | 0.0 | 0.00 | 1.17 | 0.20 | 93 | 1009.9 |
| 20260507061909 | 12 | 355 | 0.0 | 0.0 | 0.00 | 1.17 | 0.20 | 93 | 1009.9 |
| 20260507061803 | 12 | 355 | 0.0 | 0.0 | 0.00 | 1.17 | 0.20 | 93 | 1010.0 |
| 20260507061659 | 12 | 355 | 0.0 | 0.0 | 0.00 | 1.17 | 0.20 | 93 | 1010.0 |
| 20260507061555 | 12 | 355 | 0.0 | 0.0 | 0.00 | 1.17 | 0.20 | 93 | 1010.1 |
| 20260507061453 | 12 | 355 | 0.0 | 0.0 | 0.00 | 1.17 | 0.20 | 93 | 1010.2 |
| 20260507061345 | 12 | 355 | 0.0 | 0.0 | 0.00 | 1.17 | 0.20 | 93 | 1010.2 |
| 20260507061243 | 12 | 355 | 0.0 | 0.0 | 0.00 | 1.17 | 0.20 | 93 | 1010.2 |
| 20260507061137 | 12 | 355 | 0.0 | 0.0 | 0.00 | 1.17 | 0.20 | 93 | 1010.2 |
| 20260507061034 | 12 | 355 | 0.0 | 0.0 | 0.00 | 1.17 | 0.20 | 93 | 1010.2 |
| 20260507060929 | 12 | 355 | 0.0 | 0.0 | 0.00 | 1.17 | 0.20 | 93 | 1010.1 |
| 20260507060825 | 12 | 355 | 0.0 | 1.6 | 0.00 | 1.17 | 0.20 | 93 | 1010.1 |
| 20260507060719 | 12 | 355 | 0.0 | 1.6 | 0.00 | 1.17 | 0.20 | 93 | 1010.1 |
| 20260507060613 | 12 | 355 | 0.0 | 1.6 | 0.00 | 1.17 | 0.20 | 93 | 1010.0 |
| 20260507060508 | 12 | 355 | 0.0 | 1.6 | 0.00 | 1.17 | 0.20 | 93 | 1010.0 |
| 20260507060402 | 12 | 355 | 0.0 | 1.6 | 0.00 | 1.17 | 0.20 | 93 | 1009.9 |
| 20260507060301 | 12 | 355 | 0.0 | 1.6 | 0.00 | 1.17 | 0.20 | 93 | 1009.9 |
| 20260507060152 | 12 | 55 | 0.0 | 1.6 | 0.00 | 1.17 | 0.20 | 93 | 1009.8 |
| 20260507060047 | 12 | 70 | 0.0 | 1.6 | 0.00 | 1.17 | 0.20 | 93 | 1009.8 |
| 20260507055940 | 12 | 315 | 0.0 | 4.8 | 0.00 | 1.17 | 0.20 | 93 | 1009.8 |
| 20260507055832 | 12 | 315 | 0.0 | 4.8 | 0.00 | 1.17 | 0.20 | 93 | 1009.9 |
| 20260507055727 | 12 | 315 | 0.0 | 4.8 | 0.00 | 1.17 | 0.20 | 93 | 1009.9 |
| 20260507055623 | 12 | 315 | 0.0 | 4.8 | 0.00 | 1.17 | 0.20 | 94 | 1009.9 |
| 20260507055517 | 13 | 336 | 0.0 | 4.8 | 0.00 | 1.17 | 0.20 | 93 | 1009.9 |
| 20260507055412 | 13 | 331 | 0.0 | 4.8 | 0.00 | 1.17 | 0.20 | 93 | 1009.9 |
| 20260507055306 | 13 | 327 | 0.0 | 4.8 | 0.00 | 1.17 | 0.20 | 93 | 1009.8 |
| 20260507055158 | 13 | 337 | 0.0 | 4.8 | 0.00 | 1.17 | 0.20 | 94 | 1009.6 |
| 20260507055054 | 13 | 342 | 0.0 | 4.8 | 0.00 | 1.17 | 0.20 | 94 | 1009.5 |
| 20260507054725 | 13 | 350 | 0.0 | 4.8 | 0.00 | 1.17 | 0.20 | 93 | 1009.5 |
| 20260507054620 | 13 | 19 | 0.0 | 4.8 | 0.00 | 1.17 | 0.20 | 93 | 1009.6 |
| 20260507054513 | 13 | 119 | 0.0 | 4.8 | 0.00 | 1.17 | 0.20 | 93 | 1009.6 |
| 20260507054407 | 13 | 309 | 0.0 | 4.8 | 0.00 | 1.17 | 0.20 | 93 | 1009.7 |
| 20260507054303 | 13 | 309 | 0.0 | 4.8 | 0.00 | 1.17 | 0.20 | 93 | 1009.7 |
| 20260507053934 | 13 | 339 | 0.0 | 1.6 | 0.10 | 1.17 | 0.20 | 93 | 1009.6 |
| 20260507053832 | 13 | 283 | 0.0 | 1.6 | 0.10 | 1.17 | 0.20 | 93 | 1009.6 |
| 20260507053727 | 13 | 314 | 0.0 | 1.6 | 0.13 | 1.17 | 0.20 | 93 | 1009.6 |
| 20260507053621 | 13 | 312 | 0.0 | 1.6 | 0.13 | 1.17 | 0.20 | 93 | 1009.7 |
| 20260507053517 | 13 | 11 | 0.0 | 1.6 | 0.13 | 1.17 | 0.20 | 93 | 1009.7 |
| 20260507053414 | 13 | 355 | 0.0 | 1.6 | 0.13 | 1.17 | 0.20 | 93 | 1009.7 |
| 20260507053310 | 13 | 355 | 0.0 | 1.6 | 0.13 | 1.17 | 0.20 | 93 | 1009.6 |
| 20260507053205 | 13 | 355 | 0.0 | 1.6 | 0.13 | 1.17 | 0.20 | 93 | 1009.5 |
| 20260507052836 | 13 | 30 | 0.0 | 1.6 | 0.13 | 1.17 | 0.20 | 93 | 1009.6 |
| 20260507052729 | 13 | 30 | 0.0 | 1.6 | 0.13 | 1.17 | 0.20 | 93 | 1009.7 |
| 20260507052405 | 13 | 22 | 0.0 | 0.0 | 0.00 | 1.14 | 0.15 | 93 | 1010.0 |
| 20260507052305 | 13 | 22 | 0.0 | 1.6 | 0.00 | 1.14 | 0.15 | 93 | 1010.0 |
| 20260507052200 | 13 | 22 | 0.0 | 1.6 | 0.00 | 1.14 | 0.15 | 93 | 1010.0 |
| 20260507052057 | 13 | 22 | 0.0 | 1.6 | 0.00 | 1.14 | 0.15 | 93 | 1010.0 |
| 20260507051729 | 13 | 22 | 0.0 | 1.6 | 0.00 | 1.14 | 0.15 | 93 | 1009.8 |
| 20260507051625 | 13 | 22 | 0.0 | 1.6 | 0.00 | 1.14 | 0.15 | 93 | 1009.8 |
| 20260507051518 | 13 | 350 | 0.0 | 1.6 | 0.00 | 1.14 | 0.15 | 93 | 1009.8 |
| 20260507051413 | 13 | 350 | 0.0 | 1.6 | 0.00 | 1.12 | 0.15 | 93 | 1009.8 |
| 20260507051306 | 13 | 350 | 0.0 | 1.6 | 0.00 | 1.12 | 0.15 | 93 | 1009.8 |
| 20260507051200 | 13 | 5 | 0.0 | 1.6 | 0.00 | 1.12 | 0.15 | 92 | 1009.8 |
| 20260507050612 | 13 | 14 | 0.0 | 0.0 | 0.13 | 1.12 | 0.15 | 92 | 1009.5 |
| 20260507050243 | 13 | 14 | 0.0 | 0.0 | 0.15 | 1.12 | 0.15 | 92 | 1009.4 |
| 20260507050140 | 13 | 14 | 0.0 | 0.0 | 0.20 | 1.12 | 0.15 | 92 | 1009.5 |
| 20260507050033 | 13 | 14 | 0.0 | 4.8 | 0.25 | 1.12 | 0.15 | 92 | 1009.4 |
| 20260507045447 | 14 | 101 | 0.0 | 4.8 | 0.30 | 1.09 | 0.15 | 92 | 1009.5 |
| 20260507045125 | 14 | 336 | 0.0 | 4.8 | 0.30 | 1.09 | 0.13 | 93 | 1009.9 |
| 20260507045022 | 14 | 338 | 0.0 | 4.8 | 0.30 | 1.07 | 0.13 | 93 | 1009.8 |
| 20260507044915 | 14 | 35 | 0.0 | 4.8 | 0.30 | 1.07 | 0.10 | 93 | 1009.7 |
| 20260507044809 | 14 | 35 | 0.0 | 4.8 | 0.41 | 1.07 | 0.10 | 93 | 1009.7 |
| 20260507044703 | 14 | 355 | 0.0 | 4.8 | 0.53 | 1.07 | 0.10 | 93 | 1009.7 |
| 20260507044600 | 14 | 355 | 1.6 | 4.8 | 0.69 | 1.07 | 0.10 | 92 | 1009.7 |
| 20260507044454 | 14 | 66 | 1.6 | 4.8 | 0.69 | 1.04 | 0.10 | 93 | 1009.6 |
| 20260507044348 | 14 | 331 | 1.6 | 4.8 | 0.00 | 1.04 | 0.08 | 93 | 1009.4 |
| 20260507044244 | 14 | 0 | 1.6 | 4.8 | 0.00 | 1.02 | 0.08 | 93 | 1009.2 |
| 20260507044139 | 14 | 97 | 0.0 | 4.8 | 0.00 | 1.02 | 0.05 | 93 | 1009.2 |
| 20260507043812 | 15 | 324 | 0.0 | 3.2 | 0.00 | 1.02 | 0.05 | 93 | 1010.0 |
| 20260507043705 | 15 | 266 | 0.0 | 3.2 | 0.00 | 1.02 | 0.05 | 92 | 1009.8 |
| 20260507043342 | 15 | 91 | 0.0 | 3.2 | 0.00 | 1.02 | 0.05 | 92 | 1009.2 |
| 20260507043239 | 15 | 5 | 0.0 | 1.6 | 0.00 | 1.02 | 0.05 | 92 | 1009.3 |
| 20260507043134 | 15 | 5 | 0.0 | 0.0 | 0.10 | 1.02 | 0.05 | 92 | 1009.5 |
| 20260507043030 | 15 | 5 | 0.0 | 0.0 | 0.10 | 1.02 | 0.05 | 92 | 1009.6 |
| 20260507042927 | 15 | 5 | 0.0 | 0.0 | 0.10 | 1.02 | 0.05 | 92 | 1009.6 |
| 20260507042824 | 15 | 5 | 0.0 | 0.0 | 0.10 | 1.02 | 0.05 | 92 | 1009.6 |
| 20260507042717 | 15 | 5 | 0.0 | 0.0 | 0.13 | 1.02 | 0.05 | 92 | 1009.5 |
| 20260507042613 | 15 | 5 | 0.0 | 0.0 | 0.13 | 1.02 | 0.05 | 92 | 1009.5 |
| 20260507042509 | 15 | 5 | 0.0 | 0.0 | 0.15 | 1.02 | 0.05 | 92 | 1009.5 |
| 20260507042144 | 15 | 5 | 0.0 | 0.0 | 0.20 | 1.02 | 0.05 | 92 | 1009.9 |
| 20260507042036 | 15 | 5 | 0.0 | 0.0 | 0.20 | 1.02 | 0.05 | 92 | 1009.9 |
| 20260507041933 | 15 | 5 | 0.0 | 0.0 | 0.20 | 1.02 | 0.05 | 92 | 1010.1 |
| 20260507041826 | 15 | 5 | 0.0 | 0.0 | 0.20 | 1.02 | 0.05 | 91 | 1010.2 |
| 20260507041724 | 15 | 5 | 0.0 | 0.0 | 0.20 | 1.02 | 0.05 | 91 | 1010.1 |
| 20260507041616 | 15 | 5 | 0.0 | 0.0 | 0.20 | 0.99 | 0.05 | 91 | 1010.0 |
| 20260507041514 | 15 | 5 | 0.0 | 0.0 | 0.20 | 0.99 | 0.05 | 91 | 1010.0 |
| 20260507041148 | 15 | 5 | 0.0 | 0.0 | 0.00 | 0.97 | 0.03 | 91 | 1010.0 |
| 20260507041042 | 15 | 5 | 0.0 | 0.0 | 0.00 | 0.97 | 0.03 | 91 | 1010.1 |
| 20260507040934 | 15 | 5 | 0.0 | 0.0 | 0.00 | 0.97 | 0.03 | 91 | 1010.2 |
| 20260507040829 | 15 | 5 | 0.0 | 1.6 | 0.00 | 0.97 | 0.03 | 91 | 1010.2 |
| 20260507040724 | 15 | 5 | 0.0 | 1.6 | 0.00 | 0.97 | 0.03 | 91 | 1010.1 |
| 20260507040621 | 15 | 5 | 0.0 | 0.0 | 0.00 | 0.97 | 0.00 | 91 | 1009.9 |
| 20260507040516 | 15 | 5 | 0.0 | 0.0 | 0.00 | 0.97 | 0.00 | 91 | 1009.9 |
| 20260507040408 | 15 | 5 | 0.0 | 1.6 | 0.00 | 0.97 | 0.00 | 91 | 1009.8 |
| 20260507040301 | 15 | 5 | 0.0 | 1.6 | 0.10 | 0.97 | 0.00 | 91 | 1009.9 |
| 20260507040157 | 15 | 38 | 0.0 | 1.6 | 0.10 | 0.97 | 0.00 | 91 | 1009.9 |
| 20260507040051 | 15 | 214 | 0.0 | 0.0 | 0.10 | 0.97 | 0.00 | 91 | 1009.9 |
| 20260507035728 | 15 | 240 | 0.0 | 3.2 | 0.15 | 0.97 | 0.97 | 91 | 1009.8 |
| 20260507035621 | 15 | 267 | 0.0 | 3.2 | 0.15 | 0.97 | 0.97 | 91 | 1009.8 |
| 20260507035517 | 15 | 253 | 0.0 | 3.2 | 0.15 | 0.97 | 0.97 | 91 | 1009.8 |
| 20260507035411 | 15 | 286 | 0.0 | 3.2 | 0.20 | 0.97 | 0.97 | 91 | 1009.7 |
| 20260507035306 | 15 | 331 | 0.0 | 3.2 | 0.25 | 0.97 | 0.97 | 90 | 1009.3 |
| 20260507035203 | 15 | 331 | 0.0 | 3.2 | 0.30 | 0.97 | 0.97 | 90 | 1009.1 |
| 20260507035057 | 15 | 74 | 0.0 | 3.2 | 0.33 | 0.97 | 0.97 | 90 | 1009.0 |
| 20260507034954 | 15 | 74 | 0.0 | 3.2 | 0.33 | 0.97 | 0.97 | 90 | 1009.0 |
| 20260507034847 | 15 | 43 | 0.0 | 3.2 | 0.33 | 0.97 | 0.97 | 90 | 1009.1 |
| 20260507034740 | 15 | 350 | 0.0 | 3.2 | 0.33 | 0.91 | 0.97 | 90 | 1009.3 |
| 20260507034631 | 15 | 325 | 0.0 | 3.2 | 0.38 | 0.91 | 0.94 | 89 | 1009.2 |
| 20260507034527 | 15 | 325 | 0.0 | 3.2 | 0.53 | 0.91 | 0.94 | 89 | 1009.0 |
| 20260507034425 | 15 | 355 | 0.0 | 1.6 | 0.66 | 0.91 | 0.94 | 90 | 1008.9 |
| 20260507034322 | 15 | 355 | 0.0 | 1.6 | 0.66 | 0.91 | 0.94 | 90 | 1008.8 |
| 20260507034220 | 15 | 110 | 0.0 | 1.6 | 0.00 | 0.91 | 0.91 | 90 | 1008.8 |
| 20260507034115 | 15 | 109 | 0.0 | 1.6 | 0.00 | 0.89 | 0.91 | 90 | 1008.8 |
| 20260507034009 | 15 | 349 | 0.0 | 1.6 | 0.00 | 0.89 | 0.89 | 89 | 1008.8 |
| 20260507033640 | 15 | 330 | 0.0 | 1.6 | 0.00 | 0.89 | 0.89 | 88 | 1009.4 |
| 20260507033535 | 15 | 74 | 0.0 | 1.6 | 0.00 | 0.89 | 0.89 | 88 | 1009.2 |
| 20260507033432 | 15 | 41 | 0.0 | 0.0 | 0.00 | 0.89 | 0.89 | 88 | 1009.2 |
| 20260507033327 | 15 | 113 | 0.0 | 0.0 | 0.00 | 0.89 | 0.89 | 89 | 1009.2 |
| 20260507033221 | 15 | 113 | 0.0 | 3.2 | 0.00 | 0.89 | 0.89 | 89 | 1009.1 |
| 20260507033116 | 15 | 115 | 0.0 | 3.2 | 0.00 | 0.89 | 0.89 | 89 | 1009.2 |
| 20260507033012 | 15 | 30 | 0.0 | 0.0 | 0.00 | 0.89 | 0.89 | 89 | 1009.2 |
| 20260507032910 | 15 | 30 | 0.0 | 0.0 | 0.00 | 0.89 | 0.89 | 89 | 1009.2 |
| 20260507032805 | 15 | 30 | 0.0 | 0.0 | 0.00 | 0.89 | 0.89 | 89 | 1009.3 |
| 20260507032658 | 15 | 22 | 0.0 | 0.0 | 0.00 | 0.89 | 0.89 | 89 | 1009.3 |
| 20260507032338 | 16 | 24 | 0.0 | 1.6 | 0.00 | 0.89 | 0.89 | 89 | 1009.3 |
| 20260507032231 | 16 | 24 | 0.0 | 1.6 | 0.00 | 0.89 | 0.89 | 89 | 1009.3 |
| 20260507032124 | 16 | 182 | 0.0 | 0.0 | 0.00 | 0.89 | 0.89 | 89 | 1009.3 |
| 20260507032017 | 16 | 182 | 0.0 | 0.0 | 0.00 | 0.89 | 0.89 | 89 | 1009.2 |
| 20260507031913 | 16 | 182 | 0.0 | 1.6 | 0.00 | 0.89 | 0.89 | 89 | 1009.3 |
| 20260507031811 | 16 | 186 | 0.0 | 1.6 | 0.00 | 0.89 | 0.89 | 90 | 1009.3 |
| 20260507031704 | 16 | 186 | 0.0 | 1.6 | 0.00 | 0.89 | 0.89 | 90 | 1009.2 |
| 20260507031558 | 16 | 19 | 0.0 | 0.0 | 0.00 | 0.89 | 0.89 | 90 | 1009.3 |
| 20260507031234 | 16 | 59 | 0.0 | 1.6 | 0.00 | 0.89 | 0.89 | 90 | 1009.1 |
| 20260507030907 | 16 | 128 | 0.0 | 1.6 | 0.00 | 0.89 | 0.89 | 90 | 1009.1 |
| 20260507030803 | 16 | 150 | 0.0 | 1.6 | 0.00 | 0.89 | 0.89 | 90 | 1009.1 |
| 20260507030700 | 16 | 171 | 0.0 | 1.6 | 0.00 | 0.89 | 0.89 | 90 | 1009.3 |
| 20260507030557 | 16 | 13 | 0.0 | 1.6 | 0.00 | 0.89 | 0.89 | 90 | 1009.4 |
| 20260507030234 | 16 | 0 | 0.0 | 0.0 | 0.00 | 0.89 | 0.89 | 91 | 1009.1 |
| 20260507030131 | 16 | 58 | 0.0 | 3.2 | 0.00 | 0.89 | 0.89 | 91 | 1009.1 |
| 20260507030024 | 16 | 98 | 0.0 | 3.2 | 0.00 | 0.89 | 0.89 | 91 | 1009.1 |
| 20260507025919 | 16 | 328 | 0.0 | 3.2 | 0.00 | 0.89 | 0.89 | 91 | 1009.3 |
| 20260507025812 | 16 | 328 | 0.0 | 3.2 | 0.00 | 0.89 | 0.89 | 91 | 1009.3 |
| 20260507025705 | 16 | 328 | 0.0 | 3.2 | 0.00 | 0.89 | 0.89 | 91 | 1009.2 |
| 20260507025559 | 16 | 293 | 0.0 | 3.2 | 0.00 | 0.89 | 0.89 | 91 | 1009.1 |
| 20260507025453 | 16 | 16 | 0.0 | 3.2 | 0.00 | 0.89 | 0.89 | 91 | 1009.0 |
| 20260507025350 | 16 | 16 | 0.0 | 3.2 | 0.00 | 0.89 | 0.89 | 91 | 1008.8 |
| 20260507025247 | 16 | 16 | 0.0 | 3.2 | 0.00 | 0.89 | 0.89 | 91 | 1008.7 |
| 20260507025145 | 16 | 16 | 0.0 | 3.2 | 0.00 | 0.89 | 0.89 | 91 | 1008.7 |
| 20260507024824 | 16 | 319 | 0.0 | 3.2 | 0.00 | 0.89 | 0.89 | 91 | 1008.6 |
| 20260507024717 | 16 | 5 | 0.0 | 3.2 | 0.00 | 0.89 | 0.89 | 91 | 1008.6 |
| 20260507024610 | 16 | 348 | 0.0 | 3.2 | 0.00 | 0.89 | 0.89 | 91 | 1008.5 |
| 20260507024504 | 16 | 348 | 0.0 | 3.2 | 0.00 | 0.89 | 0.89 | 92 | 1008.5 |
| 20260507024358 | 16 | 0 | 0.0 | 3.2 | 0.00 | 0.89 | 0.89 | 92 | 1008.5 |
| 20260507024252 | 16 | 0 | 0.0 | 3.2 | 0.00 | 0.89 | 0.89 | 92 | 1008.5 |
| 20260507024148 | 16 | 39 | 0.0 | 0.0 | 0.00 | 0.89 | 0.89 | 92 | 1008.5 |
| 20260507024041 | 16 | 331 | 0.0 | 0.0 | 0.00 | 0.89 | 0.89 | 92 | 1008.5 |
| 20260507023720 | 16 | 94 | 0.0 | 1.6 | 0.00 | 0.89 | 0.89 | 92 | 1008.4 |
| 20260507023618 | 17 | 22 | 0.0 | 1.6 | 0.00 | 0.89 | 0.89 | 92 | 1008.4 |
| 20260507023515 | 17 | 57 | 0.0 | 1.6 | 0.00 | 0.89 | 0.89 | 92 | 1008.4 |
| 20260507023411 | 17 | 57 | 0.0 | 1.6 | 0.00 | 0.89 | 0.89 | 92 | 1008.5 |
| 20260507023309 | 17 | 57 | 0.0 | 1.6 | 0.00 | 0.89 | 0.89 | 92 | 1008.5 |
| 20260507023204 | 17 | 57 | 0.0 | 1.6 | 0.00 | 0.89 | 0.89 | 92 | 1008.6 |
| 20260507023058 | 17 | 74 | 0.0 | 1.6 | 0.00 | 0.89 | 0.89 | 92 | 1008.6 |
| 20260507022956 | 17 | 260 | 0.0 | 1.6 | 0.00 | 0.89 | 0.89 | 92 | 1008.7 |
| 20260507022852 | 17 | 15 | 0.0 | 1.6 | 0.00 | 0.89 | 0.89 | 92 | 1008.8 |
| 20260507022746 | 17 | 22 | 0.0 | 1.6 | 0.00 | 0.89 | 0.89 | 92 | 1008.8 |
| 20260507022640 | 17 | 350 | 0.0 | 1.6 | 0.00 | 0.89 | 0.89 | 92 | 1008.7 |
| 20260507022534 | 17 | 350 | 0.0 | 1.6 | 0.00 | 0.89 | 0.89 | 92 | 1008.6 |
| 20260507022428 | 17 | 69 | 0.0 | 1.6 | 0.00 | 0.89 | 0.89 | 92 | 1008.6 |
| 20260507022323 | 17 | 9 | 0.0 | 0.0 | 0.00 | 0.89 | 0.89 | 92 | 1008.6 |
| 20260507022220 | 17 | 9 | 0.0 | 1.6 | 0.00 | 0.89 | 0.89 | 92 | 1008.6 |
| 20260507022117 | 17 | 5 | 0.0 | 1.6 | 0.00 | 0.89 | 0.89 | 92 | 1008.6 |
| 20260507022014 | 17 | 5 | 0.0 | 1.6 | 0.00 | 0.89 | 0.89 | 92 | 1008.5 |
| 20260507021908 | 17 | 9 | 0.0 | 1.6 | 0.00 | 0.89 | 0.89 | 92 | 1008.5 |
| 20260507021802 | 17 | 9 | 0.0 | 1.6 | 0.00 | 0.89 | 0.89 | 92 | 1008.5 |
| 20260507021657 | 17 | 9 | 0.0 | 0.0 | 0.00 | 0.89 | 0.89 | 92 | 1008.5 |
| 20260507021332 | 17 | 9 | 0.0 | 0.0 | 0.00 | 0.89 | 0.89 | 92 | 1008.6 |
| 20260507021227 | 17 | 9 | 0.0 | 1.6 | 0.00 | 0.89 | 0.89 | 92 | 1008.6 |
| 20260507021124 | 17 | 9 | 0.0 | 1.6 | 0.00 | 0.89 | 0.89 | 92 | 1008.5 |
| 20260507021022 | 17 | 9 | 0.0 | 1.6 | 0.00 | 0.89 | 0.89 | 92 | 1008.4 |
| 20260507020916 | 17 | 313 | 0.0 | 0.0 | 0.00 | 0.89 | 0.89 | 92 | 1008.4 |
| 20260507020551 | 17 | 313 | 0.0 | 1.6 | 0.00 | 0.89 | 0.89 | 92 | 1008.5 |
| 20260507020230 | 17 | 313 | 0.0 | 1.6 | 0.00 | 0.89 | 0.89 | 92 | 1008.1 |
| 20260507020124 | 17 | 313 | 0.0 | 1.6 | 0.00 | 0.89 | 0.89 | 92 | 1008.0 |
| 20260507020017 | 17 | 313 | 0.0 | 1.6 | 0.00 | 0.89 | 0.89 | 92 | 1008.0 |
| 20260507015913 | 17 | 313 | 0.0 | 1.6 | 0.00 | 0.89 | 0.89 | 92 | 1008.0 |
| 20260507015808 | 17 | 313 | 0.0 | 1.6 | 0.00 | 0.89 | 0.89 | 91 | 1008.1 |
| 20260507015704 | 17 | 313 | 0.0 | 1.6 | 0.00 | 0.89 | 0.89 | 91 | 1008.1 |
| 20260507015600 | 17 | 313 | 0.0 | 1.6 | 0.00 | 0.89 | 0.89 | 91 | 1008.1 |
| 20260507015458 | 17 | 313 | 0.0 | 1.6 | 0.00 | 0.89 | 0.89 | 91 | 1008.1 |
| 20260507015351 | 17 | 313 | 0.0 | 1.6 | 0.00 | 0.89 | 0.89 | 91 | 1008.1 |
| 20260507015024 | 18 | 313 | 0.0 | 0.0 | 0.00 | 0.89 | 0.89 | 91 | 1008.0 |
| 20260507014917 | 18 | 313 | 0.0 | 0.0 | 0.00 | 0.89 | 0.89 | 91 | 1008.0 |
| 20260507014556 | 18 | 313 | 0.0 | 0.0 | 0.00 | 0.89 | 0.89 | 91 | 1008.0 |
| 20260507014447 | 18 | 313 | 0.0 | 0.0 | 0.00 | 0.89 | 0.89 | 91 | 1008.1 |
| 20260507014343 | 18 | 313 | 0.0 | 0.0 | 0.00 | 0.89 | 0.89 | 91 | 1008.2 |
| 20260507014240 | 18 | 313 | 0.0 | 0.0 | 0.00 | 0.89 | 0.89 | 91 | 1008.3 |
| 20260507014133 | 18 | 313 | 0.0 | 0.0 | 0.00 | 0.89 | 0.89 | 91 | 1008.3 |
| 20260507014026 | 18 | 313 | 0.0 | 0.0 | 0.00 | 0.89 | 0.89 | 91 | 1008.3 |
| 20260507013920 | 18 | 313 | 0.0 | 0.0 | 0.00 | 0.89 | 0.89 | 91 | 1008.3 |
| 20260507013816 | 18 | 313 | 0.0 | 0.0 | 0.00 | 0.89 | 0.89 | 92 | 1008.4 |
| 20260507013709 | 18 | 313 | 0.0 | 0.0 | 0.00 | 0.89 | 0.89 | 92 | 1008.5 |
| 20260507013606 | 18 | 273 | 0.0 | 1.6 | 0.00 | 0.89 | 0.89 | 92 | 1008.6 |
| 20260507013459 | 18 | 273 | 0.0 | 1.6 | 0.00 | 0.89 | 0.89 | 92 | 1008.6 |
| 20260507013132 | 18 | 286 | 0.0 | 1.6 | 0.10 | 0.89 | 0.89 | 92 | 1008.4 |
| 20260507013028 | 18 | 309 | 0.0 | 1.6 | 0.10 | 0.89 | 0.89 | 92 | 1008.3 |
| 20260507012925 | 18 | 26 | 0.0 | 0.0 | 0.13 | 0.89 | 0.89 | 91 | 1008.3 |
| 20260507012816 | 18 | 26 | 0.0 | 0.0 | 0.13 | 0.89 | 0.89 | 91 | 1008.2 |
| 20260507012711 | 18 | 26 | 0.0 | 0.0 | 0.15 | 0.89 | 0.89 | 91 | 1008.1 |
| 20260507012607 | 18 | 26 | 0.0 | 0.0 | 0.15 | 0.89 | 0.89 | 91 | 1008.1 |
| 20260507012505 | 18 | 26 | 0.0 | 0.0 | 0.15 | 0.89 | 0.89 | 91 | 1008.1 |
| 20260507012402 | 18 | 26 | 0.0 | 0.0 | 0.20 | 0.89 | 0.89 | 91 | 1008.1 |
| 20260507012300 | 18 | 26 | 0.0 | 0.0 | 0.25 | 0.89 | 0.89 | 91 | 1008.1 |
| 20260507012157 | 18 | 26 | 0.0 | 0.0 | 0.30 | 0.89 | 0.89 | 91 | 1008.1 |
| 20260507012051 | 18 | 26 | 0.0 | 0.0 | 0.33 | 0.89 | 0.89 | 91 | 1008.2 |
| 20260507011944 | 18 | 26 | 0.0 | 0.0 | 0.33 | 0.89 | 0.89 | 91 | 1008.2 |
| 20260507011838 | 18 | 26 | 0.0 | 0.0 | 0.33 | 0.89 | 0.89 | 91 | 1008.3 |
| 20260507011736 | 18 | 26 | 0.0 | 0.0 | 0.33 | 0.84 | 0.89 | 91 | 1008.3 |
| 20260507011634 | 18 | 26 | 0.0 | 0.0 | 0.33 | 0.84 | 0.86 | 91 | 1008.4 |
| 20260507011526 | 18 | 26 | 0.0 | 0.0 | 0.46 | 0.84 | 0.86 | 91 | 1008.5 |
| 20260507011422 | 18 | 26 | 0.0 | 0.0 | 0.66 | 0.84 | 0.86 | 91 | 1008.5 |
| 20260507011314 | 18 | 26 | 0.0 | 0.0 | 0.69 | 0.81 | 0.86 | 91 | 1008.5 |
| 20260507010948 | 18 | 26 | 0.0 | 0.0 | 0.00 | 0.81 | 0.81 | 91 | 1008.4 |
| 20260507010846 | 18 | 26 | 0.0 | 1.6 | 0.00 | 0.81 | 0.81 | 91 | 1008.4 |
| 20260507010744 | 18 | 26 | 0.0 | 1.6 | 0.00 | 0.81 | 0.81 | 90 | 1008.4 |
| 20260507010637 | 18 | 26 | 0.0 | 1.6 | 0.00 | 0.81 | 0.81 | 90 | 1008.5 |
| 20260507010534 | 18 | 26 | 0.0 | 1.6 | 0.00 | 0.81 | 0.81 | 90 | 1008.5 |
| 20260507010425 | 18 | 26 | 0.0 | 1.6 | 0.00 | 0.81 | 0.81 | 90 | 1008.6 |
| 20260507010321 | 18 | 26 | 0.0 | 1.6 | 0.00 | 0.81 | 0.81 | 90 | 1008.6 |
| 20260507005950 | 18 | 19 | 0.0 | 0.0 | 0.00 | 0.81 | 0.81 | 90 | 1008.6 |
| 20260507005844 | 18 | 19 | 0.0 | 0.0 | 0.00 | 0.81 | 0.81 | 90 | 1008.6 |
| 20260507005741 | 18 | 19 | 0.0 | 0.0 | 0.00 | 0.81 | 0.81 | 90 | 1008.6 |
| 20260507005636 | 18 | 19 | 0.0 | 0.0 | 0.00 | 0.81 | 0.81 | 90 | 1008.6 |
| 20260507005533 | 18 | 19 | 0.0 | 0.0 | 0.00 | 0.81 | 0.81 | 90 | 1008.6 |
| 20260507005427 | 18 | 19 | 0.0 | 0.0 | 0.00 | 0.81 | 0.81 | 90 | 1008.5 |
| 20260507005325 | 18 | 19 | 0.0 | 0.0 | 0.00 | 0.81 | 0.81 | 90 | 1008.5 |
| 20260507005220 | 18 | 19 | 0.0 | 0.0 | 0.00 | 0.81 | 0.81 | 90 | 1008.4 |
| 20260507005116 | 18 | 19 | 0.0 | 0.0 | 0.00 | 0.81 | 0.81 | 90 | 1008.5 |
| 20260507005009 | 18 | 19 | 0.0 | 0.0 | 0.00 | 0.81 | 0.81 | 90 | 1008.4 |
| 20260507004901 | 18 | 19 | 0.0 | 0.0 | 0.00 | 0.81 | 0.81 | 90 | 1008.3 |
| 20260507004537 | 18 | 19 | 0.0 | 0.0 | 0.00 | 0.81 | 0.81 | 90 | 1008.2 |
| 20260507004435 | 18 | 19 | 0.0 | 0.0 | 0.00 | 0.81 | 0.81 | 89 | 1008.2 |
| 20260507004328 | 18 | 19 | 0.0 | 0.0 | 0.00 | 0.81 | 0.81 | 90 | 1008.1 |
| 20260507004223 | 18 | 19 | 0.0 | 0.0 | 0.00 | 0.81 | 0.81 | 89 | 1008.0 |
| 20260507004119 | 18 | 19 | 0.0 | 0.0 | 0.00 | 0.81 | 0.81 | 90 | 1008.0 |
| 20260507003755 | 18 | 19 | 0.0 | 0.0 | 0.00 | 0.81 | 0.81 | 89 | 1007.9 |
| 20260507003648 | 18 | 19 | 0.0 | 0.0 | 0.00 | 0.81 | 0.81 | 89 | 1007.9 |
| 20260507003545 | 18 | 19 | 0.0 | 0.0 | 0.00 | 0.81 | 0.81 | 89 | 1008.0 |
| 20260507003442 | 18 | 19 | 0.0 | 0.0 | 0.00 | 0.81 | 0.81 | 89 | 1008.0 |
| 20260507003115 | 18 | 19 | 0.0 | 0.0 | 0.00 | 0.81 | 0.81 | 89 | 1008.0 |
| 20260507003011 | 18 | 19 | 0.0 | 0.0 | 0.00 | 0.81 | 0.81 | 89 | 1008.1 |
| 20260507002905 | 18 | 19 | 0.0 | 0.0 | 0.00 | 0.81 | 0.81 | 89 | 1008.0 |
| 20260507002802 | 18 | 19 | 0.0 | 0.0 | 0.00 | 0.81 | 0.81 | 89 | 1008.1 |
| 20260507002439 | 18 | 19 | 0.0 | 0.0 | 0.00 | 0.81 | 0.81 | 89 | 1007.9 |
| 20260507002332 | 18 | 19 | 0.0 | 0.0 | 0.00 | 0.81 | 0.81 | 89 | 1007.9 |
| 20260507002225 | 18 | 19 | 0.0 | 0.0 | 0.00 | 0.81 | 0.81 | 88 | 1007.9 |
| 20260507002123 | 18 | 19 | 0.0 | 0.0 | 0.00 | 0.81 | 0.81 | 88 | 1008.0 |
| 20260507002018 | 18 | 19 | 0.0 | 0.0 | 0.00 | 0.81 | 0.81 | 88 | 1007.9 |
| 20260507001913 | 18 | 19 | 0.0 | 0.0 | 0.00 | 0.81 | 0.81 | 88 | 1007.9 |
| 20260507001807 | 18 | 19 | 0.0 | 0.0 | 0.00 | 0.81 | 0.81 | 88 | 1007.8 |
| 20260507001703 | 18 | 19 | 0.0 | 0.0 | 0.00 | 0.81 | 0.81 | 88 | 1007.8 |
| 20260507001557 | 18 | 19 | 0.0 | 0.0 | 0.00 | 0.81 | 0.81 | 88 | 1007.8 |
| 20260507001452 | 18 | 19 | 0.0 | 0.0 | 0.00 | 0.81 | 0.81 | 88 | 1007.9 |
| 20260507001349 | 18 | 19 | 0.0 | 0.0 | 0.00 | 0.81 | 0.81 | 88 | 1007.9 |
| 20260507001245 | 19 | 19 | 0.0 | 0.0 | 0.00 | 0.81 | 0.81 | 88 | 1007.9 |
| 20260507001138 | 19 | 19 | 0.0 | 0.0 | 0.00 | 0.81 | 0.81 | 88 | 1007.9 |
| 20260507001033 | 19 | 19 | 0.0 | 0.0 | 0.00 | 0.81 | 0.81 | 88 | 1007.9 |
| 20260507000929 | 19 | 19 | 0.0 | 0.0 | 0.00 | 0.81 | 0.81 | 88 | 1007.9 |
| 20260507000826 | 19 | 19 | 0.0 | 0.0 | 0.00 | 0.81 | 0.81 | 89 | 1007.9 |
| 20260507000718 | 19 | 19 | 0.0 | 0.0 | 0.00 | 0.81 | 0.81 | 88 | 1008.0 |
| 20260507000616 | 19 | 19 | 0.0 | 0.0 | 0.00 | 0.81 | 0.81 | 88 | 1008.0 |
| 20260507000509 | 19 | 19 | 0.0 | 0.0 | 0.00 | 0.81 | 0.81 | 88 | 1007.9 |
| 20260507000402 | 19 | 19 | 0.0 | 0.0 | 0.00 | 0.81 | 0.81 | 88 | 1007.8 |
| 20260507000039 | 19 | 19 | 0.0 | 0.0 | 0.00 | 0.81 | 0.81 | 88 | 1007.8 |
| 20260506235932 | 19 | 19 | 0.0 | 0.0 | 0.00 | 0.81 | 0.81 | 88 | 1007.8 |
| 20260506235825 | 19 | 19 | 0.0 | 0.0 | 0.00 | 0.81 | 0.81 | 88 | 1007.7 |
| 20260506235721 | 19 | 19 | 0.0 | 0.0 | 0.00 | 0.81 | 0.81 | 88 | 1007.7 |
| 20260506235618 | 19 | 19 | 0.0 | 0.0 | 0.00 | 0.81 | 0.81 | 88 | 1007.6 |
| 20260506235029 | 19 | 19 | 0.0 | 0.0 | 0.00 | 0.81 | 0.81 | 88 | 1007.5 |
| 20260506234927 | 19 | 19 | 0.0 | 0.0 | 0.00 | 0.81 | 0.81 | 88 | 1007.6 |
| 20260506234825 | 19 | 19 | 0.0 | 0.0 | 0.00 | 0.81 | 0.81 | 88 | 1007.5 |
| 20260506234723 | 19 | 19 | 0.0 | 0.0 | 0.00 | 0.81 | 0.81 | 88 | 1007.5 |
| 20260506234620 | 19 | 19 | 0.0 | 0.0 | 0.00 | 0.81 | 0.81 | 88 | 1007.4 |
| 20260506234516 | 19 | 19 | 0.0 | 0.0 | 0.00 | 0.81 | 0.81 | 88 | 1007.4 |
| 20260506234148 | 19 | 19 | 0.0 | 0.0 | 0.00 | 0.81 | 0.81 | 88 | 1007.3 |
| 20260506233824 | 19 | 19 | 0.0 | 1.6 | 0.00 | 0.81 | 0.81 | 87 | 1007.4 |
| 20260506233720 | 19 | 19 | 0.0 | 1.6 | 0.00 | 0.81 | 0.81 | 87 | 1007.4 |
| 20260506233356 | 20 | 19 | 0.0 | 0.0 | 0.00 | 0.81 | 0.81 | 87 | 1007.2 |
| 20260506233248 | 20 | 19 | 0.0 | 0.0 | 0.00 | 0.81 | 0.81 | 87 | 1007.2 |
| 20260506233142 | 20 | 19 | 0.0 | 0.0 | 0.00 | 0.81 | 0.81 | 87 | 1007.2 |
| 20260506233038 | 20 | 19 | 0.0 | 0.0 | 0.00 | 0.81 | 0.81 | 87 | 1007.2 |
| 20260506232931 | 20 | 19 | 0.0 | 0.0 | 0.00 | 0.81 | 0.81 | 87 | 1007.1 |
| 20260506232829 | 20 | 19 | 0.0 | 0.0 | 0.00 | 0.81 | 0.81 | 87 | 1007.0 |
| 20260506232722 | 20 | 19 | 0.0 | 0.0 | 0.00 | 0.81 | 0.81 | 87 | 1007.0 |
| 20260506232359 | 20 | 19 | 0.0 | 0.0 | 0.00 | 0.81 | 0.81 | 87 | 1006.9 |
| 20260506232254 | 20 | 19 | 0.0 | 0.0 | 0.00 | 0.81 | 0.81 | 87 | 1006.9 |
| 20260506231932 | 20 | 19 | 0.0 | 0.0 | 0.00 | 0.81 | 0.81 | 86 | 1006.9 |
| 20260506231830 | 20 | 19 | 0.0 | 0.0 | 0.00 | 0.81 | 0.81 | 86 | 1006.8 |
| 20260506231722 | 20 | 19 | 0.0 | 0.0 | 0.00 | 0.81 | 0.81 | 86 | 1006.9 |
| 20260506231617 | 20 | 88 | 0.0 | 0.0 | 0.00 | 0.81 | 0.81 | 86 | 1006.9 |
| 20260506231249 | 20 | 88 | 0.0 | 1.6 | 0.00 | 0.81 | 0.81 | 87 | 1006.9 |
| 20260506231143 | 20 | 41 | 0.0 | 1.6 | 0.00 | 0.81 | 0.81 | 86 | 1006.9 |
| 20260506231040 | 20 | 41 | 0.0 | 0.0 | 0.00 | 0.81 | 0.81 | 86 | 1006.9 |
| 20260506230716 | 20 | 34 | 0.0 | 0.0 | 0.00 | 0.81 | 0.81 | 86 | 1007.0 |
| 20260506230608 | 20 | 34 | 0.0 | 0.0 | 0.00 | 0.81 | 0.81 | 86 | 1007.0 |
| 20260506230501 | 20 | 57 | 0.0 | 0.0 | 0.00 | 0.81 | 0.81 | 86 | 1006.8 |
| 20260506230354 | 20 | 59 | 0.0 | 0.0 | 0.00 | 0.81 | 0.81 | 86 | 1006.8 |
| 20260506230248 | 20 | 59 | 0.0 | 1.6 | 0.00 | 0.81 | 0.81 | 86 | 1006.8 |
| 20260506230144 | 20 | 165 | 0.0 | 1.6 | 0.00 | 0.81 | 0.81 | 86 | 1006.8 |
| 20260506230042 | 20 | 241 | 0.0 | 1.6 | 0.00 | 0.81 | 0.81 | 86 | 1006.8 |
| 20260506225937 | 20 | 241 | 0.0 | 1.6 | 0.00 | 0.81 | 0.81 | 86 | 1006.8 |
| 20260506225835 | 20 | 289 | 0.0 | 1.6 | 0.00 | 0.81 | 0.81 | 86 | 1006.8 |
| 20260506225729 | 20 | 289 | 0.0 | 1.6 | 0.00 | 0.81 | 0.81 | 86 | 1006.8 |
| 20260506225622 | 20 | 179 | 0.0 | 1.6 | 0.00 | 0.81 | 0.81 | 86 | 1006.8 |
| 20260506225518 | 20 | 153 | 0.0 | 0.0 | 0.00 | 0.81 | 0.81 | 86 | 1006.8 |
| 20260506224927 | 20 | 84 | 0.0 | 9.7 | 0.00 | 0.81 | 0.81 | 86 | 1006.7 |
| 20260506224824 | 20 | 125 | 0.0 | 9.7 | 0.00 | 0.81 | 0.81 | 86 | 1006.8 |
| 20260506224716 | 20 | 105 | 0.0 | 9.7 | 0.00 | 0.81 | 0.81 | 86 | 1006.8 |
| 20260506223651 | 20 | 239 | 0.0 | 6.4 | 0.00 | 0.81 | 0.81 | 86 | 1006.9 |
| 20260506223546 | 20 | 224 | 0.0 | 6.4 | 0.00 | 0.81 | 0.81 | 86 | 1006.9 |
| 20260506223441 | 20 | 224 | 0.0 | 6.4 | 0.00 | 0.81 | 0.81 | 86 | 1006.8 |
| 20260506223111 | 20 | 167 | 0.0 | 6.4 | 0.00 | 0.81 | 0.81 | 86 | 1006.8 |
| 20260506223003 | 20 | 294 | 0.0 | 6.4 | 0.00 | 0.81 | 0.81 | 86 | 1006.8 |
| 20260506222857 | 20 | 9 | 0.0 | 6.4 | 0.00 | 0.81 | 0.81 | 86 | 1006.8 |
| 20260506222534 | 20 | 213 | 0.0 | 3.2 | 0.00 | 0.81 | 0.81 | 85 | 1006.8 |
| 20260506222427 | 20 | 254 | 0.0 | 1.6 | 0.00 | 0.81 | 0.81 | 86 | 1006.8 |
| 20260506222100 | 20 | 191 | 0.0 | 3.2 | 0.00 | 0.81 | 0.81 | 85 | 1006.8 |
| 20260506221956 | 20 | 191 | 0.0 | 3.2 | 0.00 | 0.81 | 0.81 | 85 | 1006.8 |
| 20260506221854 | 20 | 180 | 0.0 | 3.2 | 0.00 | 0.81 | 0.81 | 85 | 1006.8 |
| 20260506221752 | 20 | 180 | 0.0 | 3.2 | 0.00 | 0.81 | 0.81 | 86 | 1006.8 |
| 20260506221648 | 20 | 180 | 0.0 | 3.2 | 0.00 | 0.81 | 0.81 | 86 | 1006.8 |
| 20260506221542 | 20 | 205 | 0.0 | 3.2 | 0.00 | 0.81 | 0.81 | 85 | 1006.8 |
| 20260506221217 | 20 | 113 | 0.0 | 3.2 | 0.00 | 0.81 | 0.81 | 85 | 1006.8 |
| 20260506221110 | 20 | 177 | 0.0 | 3.2 | 0.00 | 0.81 | 0.81 | 85 | 1006.8 |
| 20260506221007 | 20 | 177 | 0.0 | 1.6 | 0.00 | 0.81 | 0.81 | 84 | 1006.8 |
| 20260506220904 | 20 | 177 | 0.0 | 1.6 | 0.00 | 0.81 | 0.81 | 84 | 1006.8 |
| 20260506220542 | 20 | 350 | 0.0 | 1.6 | 0.00 | 0.81 | 0.81 | 84 | 1006.7 |
| 20260506220218 | 20 | 143 | 0.0 | 1.6 | 0.00 | 0.81 | 0.81 | 85 | 1006.8 |
| 20260506220115 | 20 | 42 | 0.0 | 1.6 | 0.00 | 0.81 | 0.81 | 85 | 1006.8 |
| 20260506220007 | 20 | 171 | 0.0 | 0.0 | 0.00 | 0.81 | 0.81 | 85 | 1006.9 |
| 20260506215903 | 20 | 171 | 0.0 | 0.0 | 0.00 | 0.81 | 0.81 | 85 | 1006.9 |
| 20260506215539 | 20 | 227 | 0.0 | 3.2 | 0.00 | 0.81 | 0.81 | 85 | 1006.9 |
| 20260506215208 | 20 | 63 | 0.0 | 3.2 | 0.00 | 0.81 | 0.81 | 86 | 1007.0 |
| 20260506215102 | 20 | 59 | 0.0 | 1.6 | 0.00 | 0.81 | 0.81 | 86 | 1007.0 |
| 20260506214522 | 20 | 107 | 0.0 | 0.0 | 0.00 | 0.81 | 0.81 | 86 | 1006.9 |
| 20260506214417 | 20 | 107 | 0.0 | 0.0 | 0.00 | 0.81 | 0.81 | 85 | 1006.9 |
| 20260506214313 | 20 | 107 | 0.0 | 0.0 | 0.00 | 0.81 | 0.81 | 85 | 1006.9 |
| 20260506214209 | 20 | 167 | 0.0 | 0.0 | 0.00 | 0.81 | 0.81 | 85 | 1006.9 |
| 20260506214105 | 20 | 167 | 0.0 | 6.4 | 0.00 | 0.81 | 0.81 | 85 | 1006.8 |
| 20260506213959 | 20 | 167 | 0.0 | 6.4 | 0.00 | 0.81 | 0.81 | 85 | 1006.8 |
| 20260506213634 | 20 | 119 | 0.0 | 6.4 | 0.00 | 0.81 | 0.81 | 84 | 1006.8 |
| 20260506213527 | 20 | 119 | 0.0 | 6.4 | 0.00 | 0.81 | 0.81 | 84 | 1006.8 |
| 20260506213420 | 20 | 109 | 0.0 | 6.4 | 0.00 | 0.81 | 0.81 | 84 | 1006.8 |
| 20260506213314 | 20 | 37 | 0.0 | 6.4 | 0.00 | 0.81 | 0.81 | 84 | 1006.9 |
| 20260506213211 | 20 | 101 | 0.0 | 6.4 | 0.00 | 0.81 | 0.81 | 84 | 1006.9 |
| 20260506213106 | 20 | 97 | 0.0 | 3.2 | 0.00 | 0.81 | 0.81 | 84 | 1006.9 |
| 20260506213003 | 20 | 144 | 0.0 | 3.2 | 0.00 | 0.81 | 0.81 | 83 | 1006.8 |
| 20260506212859 | 20 | 242 | 0.0 | 3.2 | 0.00 | 0.81 | 0.81 | 84 | 1006.8 |
| 20260506212753 | 20 | 267 | 0.0 | 3.2 | 0.00 | 0.81 | 0.81 | 84 | 1006.8 |
| 20260506212647 | 20 | 244 | 0.0 | 3.2 | 0.00 | 0.81 | 0.81 | 85 | 1006.8 |
| 20260506212541 | 20 | 130 | 0.0 | 3.2 | 0.00 | 0.81 | 0.81 | 86 | 1006.9 |
| 20260506212220 | 20 | 155 | 0.0 | 8.0 | 0.00 | 0.81 | 0.81 | 85 | 1006.8 |
| 20260506212118 | 20 | 175 | 0.0 | 8.0 | 0.00 | 0.81 | 0.81 | 85 | 1006.8 |
| 20260506211755 | 20 | 136 | 0.0 | 8.0 | 0.00 | 0.81 | 0.81 | 85 | 1006.8 |
| 20260506211653 | 20 | 134 | 0.0 | 8.0 | 0.00 | 0.81 | 0.81 | 86 | 1006.7 |
| 20260506211547 | 20 | 248 | 0.0 | 8.0 | 0.00 | 0.81 | 0.81 | 86 | 1006.7 |
| 20260506211442 | 20 | 158 | 0.0 | 8.0 | 0.00 | 0.81 | 0.81 | 86 | 1006.8 |
| 20260506211337 | 20 | 19 | 0.0 | 8.0 | 0.00 | 0.81 | 0.81 | 86 | 1006.7 |
| 20260506211235 | 20 | 46 | 0.0 | 8.0 | 0.00 | 0.81 | 0.81 | 85 | 1006.7 |
| 20260506211128 | 20 | 28 | 0.0 | 8.0 | 0.00 | 0.81 | 0.81 | 85 | 1006.7 |
| 20260506211023 | 20 | 109 | 0.0 | 8.0 | 0.00 | 0.81 | 0.81 | 85 | 1006.7 |
| 20260506210919 | 20 | 108 | 0.0 | 8.0 | 0.00 | 0.81 | 0.81 | 85 | 1006.7 |
| 20260506210811 | 20 | 132 | 0.0 | 8.0 | 0.00 | 0.81 | 0.81 | 85 | 1006.8 |
| 20260506210705 | 20 | 117 | 0.0 | 8.0 | 0.00 | 0.81 | 0.81 | 84 | 1006.8 |
| 20260506210600 | 20 | 111 | 0.0 | 8.0 | 0.00 | 0.81 | 0.81 | 84 | 1006.8 |
| 20260506210454 | 20 | 86 | 0.0 | 8.0 | 0.00 | 0.81 | 0.81 | 85 | 1006.8 |
| 20260506210351 | 20 | 165 | 0.0 | 8.0 | 0.00 | 0.81 | 0.81 | 85 | 1006.7 |
| 20260506210247 | 20 | 324 | 0.0 | 4.8 | 0.00 | 0.81 | 0.81 | 85 | 1006.7 |
| 20260506210140 | 20 | 142 | 0.0 | 4.8 | 0.00 | 0.81 | 0.81 | 85 | 1006.7 |
| 20260506210036 | 20 | 134 | 0.0 | 4.8 | 0.00 | 0.81 | 0.81 | 85 | 1006.7 |
| 20260506205934 | 20 | 281 | 0.0 | 4.8 | 0.00 | 0.81 | 0.81 | 85 | 1006.7 |
| 20260506205832 | 20 | 106 | 0.0 | 4.8 | 0.00 | 0.81 | 0.81 | 85 | 1006.6 |
| 20260506205724 | 20 | 105 | 0.0 | 4.8 | 0.00 | 0.81 | 0.81 | 85 | 1006.6 |
| 20260506205618 | 20 | 113 | 0.0 | 4.8 | 0.00 | 0.81 | 0.81 | 84 | 1006.6 |
| 20260506205513 | 20 | 113 | 0.0 | 4.8 | 0.00 | 0.81 | 0.81 | 84 | 1006.6 |
| 20260506205411 | 20 | 132 | 0.0 | 4.8 | 0.00 | 0.81 | 0.81 | 84 | 1006.6 |
| 20260506205309 | 20 | 0 | 0.0 | 8.0 | 0.00 | 0.81 | 0.81 | 85 | 1006.7 |
| 20260506205201 | 20 | 103 | 0.0 | 8.0 | 0.00 | 0.81 | 0.81 | 85 | 1006.7 |
| 20260506205059 | 20 | 209 | 0.0 | 8.0 | 0.00 | 0.81 | 0.81 | 85 | 1006.7 |
| 20260506204951 | 20 | 157 | 1.6 | 8.0 | 0.00 | 0.81 | 0.81 | 84 | 1006.7 |
| 20260506204845 | 20 | 175 | 1.6 | 8.0 | 0.00 | 0.81 | 0.81 | 85 | 1006.7 |
| 20260506204739 | 20 | 192 | 1.6 | 8.0 | 0.00 | 0.81 | 0.81 | 85 | 1006.7 |
| 20260506204635 | 20 | 136 | 1.6 | 8.0 | 0.00 | 0.81 | 0.81 | 84 | 1006.7 |
| 20260506204531 | 20 | 208 | 0.0 | 8.0 | 0.00 | 0.81 | 0.81 | 84 | 1006.7 |
| 20260506204427 | 20 | 230 | 0.0 | 8.0 | 0.00 | 0.81 | 0.81 | 84 | 1006.7 |
| 20260506204320 | 20 | 242 | 0.0 | 8.0 | 0.00 | 0.81 | 0.81 | 84 | 1006.6 |
| 20260506204215 | 20 | 163 | 0.0 | 9.7 | 0.00 | 0.81 | 0.81 | 84 | 1006.6 |
| 20260506204114 | 20 | 141 | 0.0 | 9.7 | 0.00 | 0.81 | 0.81 | 84 | 1006.5 |
| 20260506204011 | 20 | 211 | 0.0 | 9.7 | 0.00 | 0.81 | 0.81 | 84 | 1006.4 |
| 20260506203905 | 20 | 180 | 0.0 | 9.7 | 0.00 | 0.81 | 0.81 | 84 | 1006.4 |
| 20260506203758 | 20 | 114 | 0.0 | 9.7 | 0.00 | 0.81 | 0.81 | 84 | 1006.4 |
| 20260506203655 | 20 | 193 | 0.0 | 9.7 | 0.00 | 0.81 | 0.81 | 85 | 1006.5 |
| 20260506203553 | 20 | 214 | 0.0 | 9.7 | 0.00 | 0.81 | 0.81 | 84 | 1006.5 |
| 20260506203446 | 20 | 148 | 0.0 | 9.7 | 0.00 | 0.81 | 0.81 | 84 | 1006.5 |
| 20260506203344 | 20 | 199 | 0.0 | 9.7 | 0.00 | 0.81 | 0.81 | 84 | 1006.5 |
| 20260506203013 | 20 | 200 | 0.0 | 9.7 | 0.00 | 0.81 | 0.81 | 84 | 1006.4 |
| 20260506202906 | 20 | 118 | 0.0 | 9.7 | 0.00 | 0.81 | 0.81 | 84 | 1006.5 |
| 20260506202804 | 20 | 76 | 0.0 | 9.7 | 0.00 | 0.81 | 0.81 | 84 | 1006.5 |
| 20260506202657 | 20 | 117 | 0.0 | 9.7 | 0.00 | 0.81 | 0.81 | 83 | 1006.5 |
| 20260506202552 | 20 | 128 | 0.0 | 9.7 | 0.00 | 0.81 | 0.81 | 83 | 1006.5 |
| 20260506202445 | 20 | 221 | 0.0 | 9.7 | 0.00 | 0.81 | 0.81 | 83 | 1006.5 |
| 20260506202338 | 20 | 218 | 0.0 | 9.7 | 0.00 | 0.81 | 0.81 | 85 | 1006.4 |
| 20260506202233 | 20 | 72 | 0.0 | 4.8 | 0.00 | 0.81 | 0.81 | 85 | 1006.5 |
| 20260506202130 | 20 | 31 | 0.0 | 4.8 | 0.00 | 0.81 | 0.81 | 85 | 1006.5 |
| 20260506202029 | 20 | 163 | 0.0 | 4.8 | 0.00 | 0.81 | 0.81 | 84 | 1006.6 |
| 20260506201705 | 20 | 234 | 1.6 | 8.0 | 0.00 | 0.81 | 0.81 | 84 | 1006.4 |
| 20260506201600 | 20 | 238 | 0.0 | 8.0 | 0.00 | 0.81 | 0.81 | 84 | 1006.5 |
| 20260506201453 | 20 | 144 | 0.0 | 8.0 | 0.00 | 0.81 | 0.81 | 84 | 1006.5 |
| 20260506201350 | 20 | 249 | 1.6 | 8.0 | 0.00 | 0.81 | 0.81 | 83 | 1006.5 |
| 20260506201244 | 20 | 94 | 1.6 | 8.0 | 0.00 | 0.81 | 0.81 | 83 | 1006.4 |
| 20260506201136 | 20 | 184 | 1.6 | 8.0 | 0.00 | 0.81 | 0.81 | 84 | 1006.3 |
| 20260506201030 | 20 | 121 | 0.0 | 8.0 | 0.00 | 0.81 | 0.81 | 84 | 1006.4 |
| 20260506200923 | 20 | 242 | 0.0 | 8.0 | 0.00 | 0.81 | 0.81 | 84 | 1006.4 |
| 20260506200817 | 20 | 150 | 0.0 | 8.0 | 0.00 | 0.81 | 0.81 | 84 | 1006.5 |
| 20260506200710 | 20 | 201 | 1.6 | 8.0 | 0.00 | 0.81 | 0.81 | 84 | 1006.5 |
| 20260506200605 | 20 | 178 | 1.6 | 8.0 | 0.00 | 0.81 | 0.81 | 84 | 1006.4 |
| 20260506200502 | 20 | 131 | 1.6 | 8.0 | 0.00 | 0.81 | 0.81 | 84 | 1006.4 |
| 20260506200357 | 20 | 254 | 0.0 | 8.0 | 0.00 | 0.81 | 0.81 | 84 | 1006.4 |
| 20260506200252 | 20 | 238 | 0.0 | 8.0 | 0.00 | 0.81 | 0.81 | 85 | 1006.4 |
| 20260506200145 | 20 | 156 | 0.0 | 8.0 | 0.00 | 0.81 | 0.81 | 85 | 1006.5 |
| 20260506200037 | 20 | 110 | 0.0 | 8.0 | 0.00 | 0.81 | 0.81 | 86 | 1006.5 |
| 20260506195931 | 20 | 219 | 0.0 | 8.0 | 0.00 | 0.81 | 0.81 | 86 | 1006.6 |
| 20260506195829 | 20 | 0 | 1.6 | 8.0 | 0.00 | 0.81 | 0.81 | 85 | 1006.4 |
| 20260506195724 | 20 | 219 | 0.0 | 8.0 | 0.00 | 0.81 | 0.81 | 85 | 1006.4 |
| 20260506195405 | 20 | 66 | 0.0 | 9.7 | 0.00 | 0.81 | 0.81 | 86 | 1006.5 |
| 20260506195300 | 20 | 137 | 0.0 | 9.7 | 0.00 | 0.81 | 0.81 | 85 | 1006.6 |
| 20260506195155 | 20 | 187 | 1.6 | 9.7 | 0.00 | 0.81 | 0.81 | 85 | 1006.7 |
| 20260506195048 | 20 | 209 | 1.6 | 9.7 | 0.00 | 0.81 | 0.81 | 85 | 1006.6 |
| 20260506194942 | 20 | 131 | 1.6 | 9.7 | 0.00 | 0.81 | 0.81 | 85 | 1006.6 |
| 20260506194839 | 20 | 188 | 1.6 | 9.7 | 0.00 | 0.81 | 0.81 | 85 | 1006.6 |
| 20260506194735 | 20 | 263 | 1.6 | 9.7 | 0.00 | 0.81 | 0.81 | 85 | 1006.6 |
| 20260506194629 | 19 | 319 | 1.6 | 9.7 | 0.00 | 0.81 | 0.81 | 86 | 1006.7 |
| 20260506194522 | 19 | 63 | 1.6 | 9.7 | 0.00 | 0.81 | 0.81 | 86 | 1006.6 |
| 20260506194417 | 19 | 193 | 1.6 | 9.7 | 0.00 | 0.81 | 0.81 | 86 | 1006.7 |
| 20260506194310 | 19 | 279 | 1.6 | 9.7 | 0.00 | 0.81 | 0.81 | 85 | 1006.7 |
| 20260506194205 | 19 | 186 | 1.6 | 9.7 | 0.00 | 0.81 | 0.81 | 86 | 1006.8 |
| 20260506194100 | 19 | 236 | 0.0 | 9.7 | 0.00 | 0.81 | 0.81 | 86 | 1006.7 |
| 20260506193737 | 19 | 113 | 0.0 | 9.7 | 0.00 | 0.81 | 0.81 | 86 | 1006.7 |
| 20260506193634 | 19 | 183 | 0.0 | 4.8 | 0.00 | 0.81 | 0.81 | 86 | 1006.7 |
| 20260506193527 | 19 | 107 | 1.6 | 4.8 | 0.00 | 0.81 | 0.81 | 86 | 1006.7 |
| 20260506193207 | 19 | 297 | 0.0 | 4.8 | 0.00 | 0.81 | 0.81 | 86 | 1006.7 |
| 20260506193100 | 19 | 138 | 0.0 | 4.8 | 0.00 | 0.81 | 0.81 | 86 | 1006.7 |
| 20260506192957 | 19 | 167 | 0.0 | 4.8 | 0.00 | 0.81 | 0.81 | 86 | 1006.7 |
| 20260506192850 | 19 | 154 | 0.0 | 14.5 | 0.00 | 0.81 | 0.81 | 86 | 1006.8 |
| 20260506192527 | 19 | 147 | 0.0 | 14.5 | 0.00 | 0.81 | 0.81 | 86 | 1006.8 |
| 20260506192203 | 19 | 236 | 1.6 | 14.5 | 0.00 | 0.81 | 0.81 | 87 | 1006.9 |
| 20260506192056 | 19 | 134 | 1.6 | 14.5 | 0.00 | 0.81 | 0.81 | 87 | 1007.0 |
| 20260506191952 | 19 | 112 | 1.6 | 14.5 | 0.00 | 0.81 | 0.81 | 87 | 1006.9 |
| 20260506191849 | 19 | 157 | 1.6 | 14.5 | 0.00 | 0.81 | 0.81 | 87 | 1007.0 |
| 20260506191743 | 19 | 201 | 1.6 | 14.5 | 0.00 | 0.81 | 0.81 | 87 | 1006.9 |
| 20260506191419 | 18 | 92 | 1.6 | 14.5 | 0.00 | 0.81 | 0.81 | 87 | 1007.0 |
| 20260506191314 | 18 | 165 | 1.6 | 14.5 | 0.00 | 0.81 | 0.81 | 87 | 1007.0 |
| 20260506190947 | 18 | 105 | 1.6 | 14.5 | 0.00 | 0.81 | 0.81 | 87 | 1007.0 |
| 20260506190844 | 18 | 200 | 1.6 | 8.0 | 0.00 | 0.81 | 0.81 | 87 | 1007.0 |
| 20260506190737 | 18 | 269 | 1.6 | 8.0 | 0.00 | 0.81 | 0.81 | 88 | 1007.0 |
| 20260506190634 | 18 | 140 | 0.0 | 8.0 | 0.00 | 0.81 | 0.81 | 88 | 1007.0 |
| 20260506190053 | 18 | 113 | 0.0 | 6.4 | 0.00 | 0.81 | 0.81 | 88 | 1007.2 |
| 20260506185947 | 18 | 330 | 0.0 | 6.4 | 0.00 | 0.81 | 0.81 | 88 | 1007.3 |
| 20260506185841 | 18 | 167 | 0.0 | 6.4 | 0.00 | 0.81 | 0.81 | 88 | 1007.2 |
| 20260506185736 | 18 | 167 | 0.0 | 6.4 | 0.00 | 0.81 | 0.81 | 88 | 1007.2 |
| 20260506185148 | 18 | 217 | 0.0 | 6.4 | 0.00 | 0.81 | 0.81 | 88 | 1007.1 |
| 20260506185041 | 18 | 173 | 0.0 | 6.4 | 0.00 | 0.81 | 0.81 | 88 | 1007.1 |
| 20260506184938 | 18 | 191 | 0.0 | 6.4 | 0.00 | 0.81 | 0.81 | 88 | 1007.2 |
| 20260506184834 | 18 | 90 | 0.0 | 6.4 | 0.00 | 0.81 | 0.81 | 88 | 1007.3 |
| 20260506184730 | 18 | 235 | 0.0 | 6.4 | 0.00 | 0.81 | 0.81 | 88 | 1007.3 |
| 20260506184627 | 18 | 158 | 0.0 | 6.4 | 0.00 | 0.81 | 0.81 | 88 | 1007.2 |
| 20260506184521 | 18 | 130 | 0.0 | 6.4 | 0.00 | 0.81 | 0.81 | 88 | 1007.2 |
| 20260506184157 | 18 | 355 | 0.0 | 4.8 | 0.00 | 0.81 | 0.81 | 89 | 1007.5 |
| 20260506183834 | 18 | 109 | 1.6 | 11.3 | 0.00 | 0.81 | 0.81 | 88 | 1007.5 |
| 20260506183509 | 18 | 336 | 1.6 | 11.3 | 0.00 | 0.81 | 0.81 | 87 | 1007.3 |
| 20260506183402 | 18 | 236 | 1.6 | 11.3 | 0.00 | 0.81 | 0.81 | 88 | 1007.3 |
| 20260506183037 | 18 | 197 | 1.6 | 11.3 | 0.00 | 0.81 | 0.81 | 88 | 1007.4 |
| 20260506182931 | 18 | 151 | 1.6 | 11.3 | 0.00 | 0.81 | 0.81 | 88 | 1007.4 |
| 20260506182348 | 18 | 171 | 1.6 | 11.3 | 0.00 | 0.81 | 0.81 | 88 | 1007.3 |
| 20260506182022 | 18 | 136 | 1.6 | 11.3 | 0.00 | 0.81 | 0.81 | 88 | 1007.3 |
| 20260506181700 | 18 | 184 | 1.6 | 9.7 | 0.00 | 0.81 | 0.81 | 88 | 1007.1 |
| 20260506181554 | 18 | 280 | 1.6 | 9.7 | 0.00 | 0.81 | 0.81 | 88 | 1007.1 |
| 20260506181447 | 18 | 229 | 1.6 | 9.7 | 0.00 | 0.81 | 0.81 | 88 | 1007.2 |
| 20260506181340 | 18 | 270 | 1.6 | 9.7 | 0.00 | 0.81 | 0.81 | 88 | 1007.2 |
| 20260506181017 | 18 | 213 | 1.6 | 9.7 | 0.00 | 0.81 | 0.81 | 89 | 1007.4 |
| 20260506180913 | 18 | 241 | 1.6 | 9.7 | 0.00 | 0.81 | 0.81 | 89 | 1007.4 |
| 20260506180810 | 18 | 165 | 0.0 | 6.4 | 0.00 | 0.81 | 0.81 | 89 | 1007.3 |
| 20260506180704 | 18 | 199 | 0.0 | 6.4 | 0.00 | 0.81 | 0.81 | 89 | 1007.3 |
| 20260506180601 | 18 | 75 | 0.0 | 6.4 | 0.00 | 0.81 | 0.81 | 89 | 1007.3 |
| 20260506180458 | 18 | 126 | 0.0 | 6.4 | 0.00 | 0.81 | 0.81 | 89 | 1007.4 |
| 20260506175918 | 17 | 126 | 1.6 | 6.4 | 0.00 | 0.81 | 0.81 | 89 | 1007.5 |
| 20260506175814 | 17 | 198 | 1.6 | 6.4 | 0.00 | 0.81 | 0.81 | 89 | 1007.5 |
| 20260506175710 | 17 | 128 | 1.6 | 6.4 | 0.00 | 0.81 | 0.81 | 88 | 1007.4 |
| 20260506175607 | 17 | 198 | 1.6 | 6.4 | 0.00 | 0.81 | 0.81 | 89 | 1007.5 |
| 20260506175503 | 17 | 201 | 1.6 | 4.8 | 0.00 | 0.81 | 0.81 | 89 | 1007.5 |
| 20260506174920 | 17 | 185 | 0.0 | 4.8 | 0.00 | 0.81 | 0.81 | 89 | 1007.5 |
| 20260506174813 | 17 | 156 | 0.0 | 4.8 | 0.00 | 0.81 | 0.81 | 89 | 1007.6 |
| 20260506174453 | 17 | 202 | 0.0 | 8.0 | 0.00 | 0.81 | 0.81 | 89 | 1007.6 |
| 20260506174346 | 17 | 68 | 0.0 | 8.0 | 0.00 | 0.81 | 0.81 | 89 | 1007.5 |
| 20260506174240 | 17 | 278 | 0.0 | 8.0 | 0.00 | 0.81 | 0.81 | 89 | 1007.5 |
| 20260506174134 | 17 | 220 | 0.0 | 8.0 | 0.00 | 0.81 | 0.81 | 89 | 1007.5 |
| 20260506174027 | 17 | 102 | 1.6 | 8.0 | 0.00 | 0.81 | 0.81 | 89 | 1007.5 |
| 20260506173704 | 17 | 180 | 1.6 | 12.9 | 0.00 | 0.81 | 0.81 | 89 | 1007.5 |
| 20260506173600 | 17 | 135 | 1.6 | 12.9 | 0.00 | 0.81 | 0.81 | 89 | 1007.5 |
| 20260506173458 | 17 | 171 | 1.6 | 12.9 | 0.00 | 0.81 | 0.81 | 89 | 1007.5 |
| 20260506173353 | 17 | 336 | 1.6 | 12.9 | 0.00 | 0.81 | 0.81 | 89 | 1007.6 |
| 20260506173251 | 17 | 96 | 1.6 | 12.9 | 0.00 | 0.81 | 0.81 | 89 | 1007.6 |
| 20260506173146 | 17 | 81 | 1.6 | 12.9 | 0.00 | 0.81 | 0.81 | 89 | 1007.6 |
| 20260506173040 | 17 | 202 | 1.6 | 12.9 | 0.00 | 0.81 | 0.81 | 89 | 1007.6 |
| 20260506172935 | 17 | 205 | 1.6 | 12.9 | 0.00 | 0.81 | 0.81 | 89 | 1007.6 |
| 20260506172828 | 17 | 62 | 1.6 | 12.9 | 0.00 | 0.81 | 0.81 | 90 | 1007.6 |
| 20260506172724 | 17 | 305 | 1.6 | 16.1 | 0.00 | 0.81 | 0.81 | 90 | 1007.7 |
| 20260506172617 | 17 | 193 | 1.6 | 16.1 | 0.00 | 0.81 | 0.81 | 90 | 1007.6 |
| 20260506172512 | 17 | 161 | 1.6 | 16.1 | 0.00 | 0.81 | 0.81 | 89 | 1007.6 |
| 20260506172405 | 17 | 94 | 1.6 | 16.1 | 0.00 | 0.81 | 0.81 | 89 | 1007.7 |
| 20260506172300 | 17 | 294 | 1.6 | 16.1 | 0.00 | 0.81 | 0.81 | 89 | 1007.7 |
| 20260506172154 | 17 | 195 | 1.6 | 16.1 | 0.00 | 0.81 | 0.81 | 89 | 1007.7 |
| 20260506172051 | 17 | 68 | 1.6 | 16.1 | 0.00 | 0.81 | 0.81 | 89 | 1007.7 |
| 20260506171949 | 17 | 169 | 1.6 | 16.1 | 0.00 | 0.81 | 0.81 | 89 | 1007.7 |
| 20260506171627 | 17 | 337 | 1.6 | 16.1 | 0.00 | 0.81 | 0.81 | 89 | 1007.7 |
| 20260506171521 | 17 | 62 | 1.6 | 16.1 | 0.00 | 0.81 | 0.81 | 89 | 1007.7 |
| 20260506171414 | 17 | 63 | 1.6 | 16.1 | 0.00 | 0.81 | 0.81 | 89 | 1007.7 |
| 20260506171309 | 17 | 76 | 1.6 | 16.1 | 0.00 | 0.81 | 0.81 | 89 | 1007.8 |
| 20260506171204 | 17 | 88 | 1.6 | 16.1 | 0.00 | 0.81 | 0.81 | 90 | 1007.8 |
| 20260506171057 | 17 | 219 | 1.6 | 16.1 | 0.00 | 0.81 | 0.81 | 90 | 1007.8 |
| 20260506170955 | 17 | 294 | 1.6 | 16.1 | 0.00 | 0.81 | 0.81 | 90 | 1007.8 |
| 20260506170851 | 17 | 355 | 1.6 | 16.1 | 0.00 | 0.81 | 0.81 | 90 | 1007.7 |
| 20260506170528 | 17 | 148 | 1.6 | 11.3 | 0.00 | 0.81 | 0.81 | 90 | 1007.6 |
| 20260506170423 | 17 | 192 | 0.0 | 11.3 | 0.00 | 0.81 | 0.81 | 90 | 1007.7 |
| 20260506170318 | 17 | 75 | 0.0 | 11.3 | 0.00 | 0.81 | 0.81 | 91 | 1007.7 |
| 20260506170212 | 17 | 59 | 0.0 | 11.3 | 0.00 | 0.81 | 0.81 | 91 | 1007.7 |
| 20260506165847 | 17 | 188 | 0.0 | 11.3 | 0.00 | 0.81 | 0.81 | 90 | 1007.7 |
| 20260506165741 | 17 | 182 | 0.0 | 11.3 | 0.00 | 0.81 | 0.81 | 90 | 1007.7 |
| 20260506165634 | 17 | 99 | 0.0 | 11.3 | 0.00 | 0.81 | 0.81 | 90 | 1007.7 |
| 20260506165531 | 17 | 219 | 0.0 | 11.3 | 0.00 | 0.81 | 0.81 | 90 | 1007.8 |
| 20260506165206 | 17 | 140 | 1.6 | 11.3 | 0.00 | 0.81 | 0.81 | 91 | 1007.8 |
| 20260506165103 | 17 | 220 | 0.0 | 11.3 | 0.00 | 0.81 | 0.81 | 91 | 1007.8 |
| 20260506164957 | 17 | 207 | 1.6 | 4.8 | 0.00 | 0.81 | 0.81 | 91 | 1007.8 |
| 20260506164849 | 17 | 142 | 1.6 | 4.8 | 0.00 | 0.81 | 0.81 | 91 | 1007.9 |
| 20260506164744 | 17 | 231 | 0.0 | 4.8 | 0.00 | 0.81 | 0.81 | 90 | 1007.8 |
| 20260506164642 | 17 | 30 | 1.6 | 9.7 | 0.00 | 0.81 | 0.81 | 90 | 1007.7 |
| 20260506164322 | 17 | 273 | 1.6 | 9.7 | 0.00 | 0.81 | 0.81 | 91 | 1007.7 |
| 20260506164217 | 17 | 195 | 1.6 | 9.7 | 0.00 | 0.81 | 0.81 | 91 | 1007.8 |
| 20260506164109 | 17 | 102 | 1.6 | 9.7 | 0.00 | 0.81 | 0.81 | 91 | 1007.8 |
| 20260506164008 | 17 | 158 | 1.6 | 9.7 | 0.00 | 0.81 | 0.81 | 91 | 1007.8 |
| 20260506163646 | 17 | 148 | 1.6 | 11.3 | 0.00 | 0.81 | 0.81 | 91 | 1007.8 |
| 20260506163542 | 17 | 82 | 1.6 | 11.3 | 0.00 | 0.81 | 0.81 | 91 | 1007.8 |
| 20260506163440 | 17 | 111 | 1.6 | 11.3 | 0.00 | 0.81 | 0.81 | 91 | 1007.8 |
| 20260506162852 | 17 | 161 | 1.6 | 11.3 | 0.00 | 0.81 | 0.81 | 92 | 1007.8 |
| 20260506162750 | 17 | 328 | 1.6 | 11.3 | 0.00 | 0.81 | 0.81 | 93 | 1007.8 |
| 20260506162647 | 17 | 351 | 1.6 | 11.3 | 0.00 | 0.81 | 0.81 | 93 | 1008.0 |
| 20260506162323 | 17 | 115 | 0.0 | 11.3 | 0.00 | 0.81 | 0.81 | 93 | 1008.0 |
| 20260506162219 | 17 | 97 | 1.6 | 11.3 | 0.00 | 0.81 | 0.81 | 93 | 1008.0 |
| 20260506162114 | 17 | 261 | 1.6 | 11.3 | 0.00 | 0.81 | 0.81 | 93 | 1008.0 |
| 20260506162011 | 17 | 274 | 1.6 | 11.3 | 0.00 | 0.81 | 0.81 | 93 | 1007.9 |
| 20260506161904 | 17 | 240 | 1.6 | 11.3 | 0.00 | 0.81 | 0.81 | 93 | 1007.9 |
| 20260506161800 | 17 | 245 | 1.6 | 11.3 | 0.00 | 0.81 | 0.81 | 93 | 1008.0 |
| 20260506161657 | 17 | 126 | 1.6 | 9.7 | 0.00 | 0.81 | 0.81 | 93 | 1007.9 |
| 20260506161552 | 17 | 72 | 1.6 | 9.7 | 0.00 | 0.81 | 0.81 | 93 | 1007.9 |
| 20260506161450 | 17 | 221 | 1.6 | 9.7 | 0.00 | 0.81 | 0.81 | 93 | 1007.9 |
| 20260506161344 | 16 | 217 | 1.6 | 9.7 | 0.00 | 0.81 | 0.81 | 94 | 1007.9 |
| 20260506161020 | 16 | 205 | 1.6 | 9.7 | 0.00 | 0.81 | 0.81 | 94 | 1007.9 |